Time,TemperatureF,DewpointF,PressureIn,WindDirection,WindDirectionDegrees,WindSpeedMPH,WindSpeedGustMPH,Humidity,HourlyPrecipIn,Conditions,Clouds,dailyrainin,SoftwareType,DateUTC
2014-01-03 06:18:00,2.4,-0.8,-32.77,NW,317,4.0,7.0,86,0.00,,,0.00,Wunderground v.1.15,2014-01-03 11:18:00,
2014-01-03 06:19:00,2.4,-0.8,-32.77,NNW,342,4.0,7.0,86,0.00,,,0.00,Wunderground v.1.15,2014-01-03 11:19:00,
2014-01-03 06:20:00,2.4,-0.8,-32.77,WNW,296,4.0,7.0,86,0.00,,,0.00,Wunderground v.1.15,2014-01-03 11:20:00,
2014-01-03 06:22:00,2.4,-0.8,-32.77,NNW,327,4.0,7.0,86,0.00,,,0.00,Wunderground v.1.15,2014-01-03 11:22:00,
2014-01-03 06:24:00,2.4,-0.8,-32.77,WNW,291,4.0,7.0,86,0.00,,,0.00,Wunderground v.1.15,2014-01-03 11:24:00,
2014-01-03 06:25:00,2.4,-0.8,-32.77,NNW,344,4.0,7.0,86,0.00,,,0.00,Wunderground v.1.15,2014-01-03 11:25:00,
2014-01-03 06:26:00,2.4,-0.8,-32.77,West,280,4.0,8.0,86,0.00,,,0.00,Wunderground v.1.15,2014-01-03 11:26:00,
2014-01-03 06:27:00,2.4,-0.8,-32.77,NW,323,5.0,15.0,86,0.00,,,0.00,Wunderground v.1.15,2014-01-03 11:27:00,
2014-01-03 06:30:00,2.4,-0.8,-32.77,NW,311,5.0,15.0,86,0.00,,,0.00,Wunderground v.1.15,2014-01-03 11:30:00,
2014-01-03 06:31:00,2.4,-0.8,-32.77,WNW,298,6.0,15.0,86,0.00,,,0.00,Wunderground v.1.15,2014-01-03 11:31:00,
2014-01-03 06:33:00,2.4,-0.8,-32.77,NW,321,6.0,15.0,86,0.00,,,0.00,Wunderground v.1.15,2014-01-03 11:33:00,
2014-01-03 06:34:00,2.4,-0.8,-32.77,WNW,300,6.0,15.0,86,0.00,,,0.00,Wunderground v.1.15,2014-01-03 11:34:00,
2014-01-03 06:37:00,2.4,-0.8,-32.77,WNW,294,6.0,9.0,86,0.00,,,0.00,Wunderground v.1.15,2014-01-03 11:37:00,
2014-01-03 06:39:00,2.4,-0.8,-32.77,North,355,6.0,14.0,86,0.00,,,0.00,Wunderground v.1.15,2014-01-03 11:39:00,
2014-01-03 06:40:00,2.4,-0.8,-32.77,NNW,328,6.0,14.0,86,0.00,,,0.00,Wunderground v.1.15,2014-01-03 11:40:00,
2014-01-03 06:42:00,2.5,-0.7,-32.77,NW,319,6.0,14.0,86,0.00,,,0.00,Wunderground v.1.15,2014-01-03 11:42:00,
2014-01-03 06:46:00,2.4,-0.8,-32.77,WNW,284,6.0,13.0,86,0.00,,,0.00,Wunderground v.1.15,2014-01-03 11:46:00,
2014-01-03 06:47:00,2.5,-0.7,-32.77,WNW,290,6.0,13.0,86,0.00,,,0.00,Wunderground v.1.15,2014-01-03 11:47:00,
2014-01-03 06:49:00,2.5,-0.7,-32.77,NNW,334,6.0,13.0,86,0.00,,,0.00,Wunderground v.1.15,2014-01-03 11:49:00,
2014-01-03 06:51:00,2.5,-0.7,-32.77,West,278,6.0,13.0,86,0.00,,,0.00,Wunderground v.1.15,2014-01-03 11:51:00,
2014-01-03 06:55:00,2.6,-0.6,-32.77,NW,311,6.0,13.0,86,0.00,,,0.00,Wunderground v.1.15,2014-01-03 11:55:00,
2014-01-03 06:56:00,2.6,-0.6,-32.77,NW,313,6.0,6.0,86,0.00,,,0.00,Wunderground v.1.15,2014-01-03 11:56:00,
2014-01-03 06:57:00,2.6,-0.6,-32.77,NW,323,6.0,8.0,86,0.00,,,0.00,Wunderground v.1.15,2014-01-03 11:57:00,
2014-01-03 06:58:00,2.6,-0.6,-32.77,WNW,301,6.0,13.0,86,0.00,,,0.00,Wunderground v.1.15,2014-01-03 11:58:00,
2014-01-03 07:00:00,2.6,-0.4,-32.77,NW,309,6.0,6.0,87,0.00,,,0.00,Wunderground v.1.15,2014-01-03 12:00:00,
2014-01-03 07:04:00,2.6,-0.6,-32.77,WNW,292,5.0,13.0,86,0.00,,,0.00,Wunderground v.1.15,2014-01-03 12:04:00,
2014-01-03 07:05:00,2.6,-0.6,-32.77,WNW,299,5.0,13.0,86,0.00,,,0.00,Wunderground v.1.15,2014-01-03 12:05:00,
2014-01-03 07:06:00,2.6,-0.6,-32.77,NW,317,5.0,13.0,86,0.00,,,0.00,Wunderground v.1.15,2014-01-03 12:06:00,
2014-01-03 07:07:00,2.6,-0.6,-32.77,NW,317,5.0,13.0,86,0.00,,,0.00,Wunderground v.1.15,2014-01-03 12:07:00,
2014-01-03 07:09:00,2.6,-0.6,-32.77,NNW,336,5.0,13.0,86,0.00,,,0.00,Wunderground v.1.15,2014-01-03 12:09:00,
2014-01-03 07:11:00,2.6,-0.6,-32.77,NNW,328,5.0,13.0,86,0.00,,,0.00,Wunderground v.1.15,2014-01-03 12:11:00,
2014-01-03 07:15:00,2.7,-0.5,-32.77,NW,304,5.0,13.0,86,0.00,,,0.00,Wunderground v.1.15,2014-01-03 12:15:00,
2014-01-03 07:16:00,2.7,-0.5,-32.77,West,281,5.0,13.0,86,0.00,,,0.00,Wunderground v.1.15,2014-01-03 12:16:00,
2014-01-03 07:17:00,2.7,-0.5,-32.77,NW,317,5.0,13.0,86,0.00,,,0.00,Wunderground v.1.15,2014-01-03 12:17:00,
2014-01-03 07:18:00,2.7,-0.5,-32.77,WNW,297,6.0,13.0,86,0.00,,,0.00,Wunderground v.1.15,2014-01-03 12:18:00,
2014-01-03 07:20:00,2.7,-0.5,-32.77,NW,306,6.0,6.0,86,0.00,,,0.00,Wunderground v.1.15,2014-01-03 12:20:00,
2014-01-03 07:21:00,2.7,-0.5,-32.77,NW,325,6.0,13.0,86,0.00,,,0.00,Wunderground v.1.15,2014-01-03 12:21:00,
2014-01-03 07:23:00,2.7,-0.5,-32.77,NW,309,5.0,13.0,86,0.00,,,0.00,Wunderground v.1.15,2014-01-03 12:23:00,
2014-01-03 07:24:00,2.7,-0.5,-32.77,NW,314,5.0,13.0,86,0.00,,,0.00,Wunderground v.1.15,2014-01-03 12:24:00,
2014-01-03 07:25:00,2.7,-0.5,-32.77,WNW,302,5.0,13.0,86,0.00,,,0.00,Wunderground v.1.15,2014-01-03 12:25:00,
2014-01-03 07:29:00,2.7,-0.5,-32.77,WNW,300,4.0,13.0,86,0.00,,,0.00,Wunderground v.1.15,2014-01-03 12:29:00,
2014-01-03 07:30:00,2.7,-0.5,-32.77,NW,317,4.0,13.0,86,0.00,,,0.00,Wunderground v.1.15,2014-01-03 12:30:00,
2014-01-03 07:32:00,2.7,-0.5,-32.77,NW,309,4.0,13.0,86,0.00,,,0.00,Wunderground v.1.15,2014-01-03 12:32:00,
2014-01-03 07:35:00,2.7,-0.5,-32.77,WNW,299,4.0,13.0,86,0.00,,,0.00,Wunderground v.1.15,2014-01-03 12:35:00,
2014-01-03 07:37:00,2.7,-0.5,-32.77,NNW,327,5.0,13.0,86,0.00,,,0.00,Wunderground v.1.15,2014-01-03 12:37:00,
2014-01-03 07:39:00,2.7,-0.5,-32.77,NW,321,5.0,13.0,86,0.00,,,0.00,Wunderground v.1.15,2014-01-03 12:39:00,
2014-01-03 07:40:00,2.7,-0.5,-32.77,NNW,327,5.0,13.0,86,0.00,,,0.00,Wunderground v.1.15,2014-01-03 12:40:00,
2014-01-03 07:41:00,2.8,-0.4,-32.77,WNW,291,5.0,13.0,86,0.00,,,0.00,Wunderground v.1.15,2014-01-03 12:41:00,
2014-01-03 07:42:00,2.7,-0.5,-32.77,WNW,290,5.0,13.0,86,0.00,,,0.00,Wunderground v.1.15,2014-01-03 12:42:00,
2014-01-03 07:44:00,2.7,-0.5,-32.77,WNW,299,5.0,13.0,86,0.00,,,0.00,Wunderground v.1.15,2014-01-03 12:44:00,
2014-01-03 07:47:00,2.8,-0.4,-32.77,WNW,286,4.0,13.0,86,0.00,,,0.00,Wunderground v.1.15,2014-01-03 12:47:00,
2014-01-03 07:48:00,2.8,-0.4,-32.77,NNW,344,4.0,13.0,86,0.00,,,0.00,Wunderground v.1.15,2014-01-03 12:48:00,
2014-01-03 07:50:00,2.8,-0.4,-32.77,NW,315,5.0,5.0,86,0.00,,,0.00,Wunderground v.1.15,2014-01-03 12:50:00,
2014-01-03 07:52:00,2.8,-0.4,-32.77,NW,311,5.0,13.0,86,0.00,,,0.00,Wunderground v.1.15,2014-01-03 12:52:00,
2014-01-03 07:53:00,2.8,-0.4,-32.77,NW,308,5.0,13.0,86,0.00,,,0.00,Wunderground v.1.15,2014-01-03 12:53:00,
2014-01-03 07:54:00,2.8,-0.4,-32.77,NNW,333,5.0,13.0,86,0.00,,,0.00,Wunderground v.1.15,2014-01-03 12:54:00,
2014-01-03 07:56:00,2.8,-0.4,-32.77,WNW,301,6.0,13.0,86,0.00,,,0.00,Wunderground v.1.15,2014-01-03 12:56:00,
2014-01-03 07:57:00,2.8,-0.4,-32.77,NW,313,6.0,13.0,86,0.00,,,0.00,Wunderground v.1.15,2014-01-03 12:57:00,
2014-01-03 08:01:00,2.9,-0.3,-32.77,NW,309,6.0,13.0,86,0.00,,,0.00,Wunderground v.1.15,2014-01-03 13:01:00,
2014-01-03 08:02:00,2.9,-0.3,-32.77,WNW,301,6.0,13.0,86,0.00,,,0.00,Wunderground v.1.15,2014-01-03 13:02:00,
2014-01-03 08:03:00,2.9,-0.3,-32.77,WNW,298,6.0,13.0,86,0.00,,,0.00,Wunderground v.1.15,2014-01-03 13:03:00,
2014-01-03 08:04:00,2.9,-0.3,-32.77,NW,306,6.0,13.0,86,0.00,,,0.00,Wunderground v.1.15,2014-01-03 13:04:00,
2014-01-03 08:05:00,2.9,-0.3,-32.77,NNW,335,5.0,13.0,86,0.00,,,0.00,Wunderground v.1.15,2014-01-03 13:05:00,
2014-01-03 08:09:00,2.9,-0.3,-32.77,WNW,298,5.0,13.0,86,0.00,,,0.00,Wunderground v.1.15,2014-01-03 13:09:00,
2014-01-03 08:10:00,2.9,-0.3,-32.77,WNW,303,6.0,6.0,86,0.00,,,0.00,Wunderground v.1.15,2014-01-03 13:10:00,
2014-01-03 08:12:00,2.9,-0.3,-32.77,NW,307,6.0,13.0,86,0.00,,,0.00,Wunderground v.1.15,2014-01-03 13:12:00,
2014-01-03 08:13:00,2.9,-0.3,-32.77,WNW,290,6.0,13.0,86,0.00,,,0.00,Wunderground v.1.15,2014-01-03 13:13:00,
2014-01-03 08:15:00,2.9,-0.3,-32.77,NW,311,6.0,13.0,86,0.00,,,0.00,Wunderground v.1.15,2014-01-03 13:15:00,
2014-01-03 08:16:00,3.0,-0.2,-32.77,WNW,295,6.0,13.0,86,0.00,,,0.00,Wunderground v.1.15,2014-01-03 13:16:00,
2014-01-03 08:17:00,2.9,-0.3,-32.77,NW,304,6.0,13.0,86,0.00,,,0.00,Wunderground v.1.15,2014-01-03 13:17:00,
2014-01-03 08:19:00,2.9,-0.3,-32.77,WNW,302,5.0,13.0,86,0.00,,,0.00,Wunderground v.1.15,2014-01-03 13:19:00,
2014-01-03 08:22:00,3.0,-0.2,-32.77,WNW,298,5.0,13.0,86,0.00,,,0.00,Wunderground v.1.15,2014-01-03 13:22:00,
2014-01-03 08:23:00,3.0,-0.2,-32.77,NW,305,4.0,13.0,86,0.00,,,0.00,Wunderground v.1.15,2014-01-03 13:23:00,
2014-01-03 08:24:00,3.0,-0.2,-32.77,NW,305,5.0,13.0,86,0.00,,,0.00,Wunderground v.1.15,2014-01-03 13:24:00,
2014-01-03 08:25:00,3.0,-0.5,-32.77,WNW,300,5.0,13.0,85,0.00,,,0.00,Wunderground v.1.15,2014-01-03 13:25:00,
2014-01-03 08:28:00,3.0,-0.5,-32.77,WSW,257,5.0,13.0,85,0.00,,,0.00,Wunderground v.1.15,2014-01-03 13:28:00,
2014-01-03 08:31:00,3.0,-0.5,-32.77,NW,306,5.0,13.0,85,0.00,,,0.00,Wunderground v.1.15,2014-01-03 13:31:00,
2014-01-03 08:32:00,3.0,-0.5,-32.77,NW,312,5.0,13.0,85,0.00,,,0.00,Wunderground v.1.15,2014-01-03 13:32:00,
2014-01-03 08:33:00,3.0,-0.5,-32.77,WNW,302,5.0,13.0,85,0.00,,,0.00,Wunderground v.1.15,2014-01-03 13:33:00,
2014-01-03 08:35:00,3.0,-0.5,-32.77,WNW,295,6.0,13.0,85,0.00,,,0.00,Wunderground v.1.15,2014-01-03 13:35:00,
2014-01-03 08:36:00,3.0,-0.5,-32.77,WNW,283,6.0,13.0,85,0.00,,,0.00,Wunderground v.1.15,2014-01-03 13:36:00,
2014-01-03 08:39:00,3.1,-0.4,-32.77,WNW,286,5.0,13.0,85,0.00,,,0.00,Wunderground v.1.15,2014-01-03 13:39:00,
2014-01-03 08:40:00,3.1,-0.4,-32.77,West,271,6.0,6.0,85,0.00,,,0.00,Wunderground v.1.15,2014-01-03 13:40:00,
2014-01-03 08:41:00,3.1,-0.4,-32.77,NW,316,6.0,9.0,85,0.00,,,0.00,Wunderground v.1.15,2014-01-03 13:41:00,
2014-01-03 08:42:00,3.1,-0.4,-32.77,NW,314,6.0,13.0,85,0.00,,,0.00,Wunderground v.1.15,2014-01-03 13:42:00,
2014-01-03 08:43:00,3.1,-0.4,-32.77,WNW,291,5.0,13.0,85,0.00,,,0.00,Wunderground v.1.15,2014-01-03 13:43:00,
2014-01-03 08:45:00,3.1,-0.4,-32.77,WNW,300,5.0,13.0,85,0.00,,,0.00,Wunderground v.1.15,2014-01-03 13:45:00,
2014-01-03 08:48:00,3.1,-0.4,-32.77,NW,319,6.0,13.0,85,0.00,,,0.00,Wunderground v.1.15,2014-01-03 13:48:00,
2014-01-03 08:49:00,3.0,-0.5,-32.77,West,276,6.0,13.0,85,0.00,,,0.00,Wunderground v.1.15,2014-01-03 13:49:00,
2014-01-03 08:50:00,3.1,-0.4,-32.77,WNW,291,5.0,13.0,85,0.00,,,0.00,Wunderground v.1.15,2014-01-03 13:50:00,
2014-01-03 08:51:00,3.1,-0.4,-32.77,WNW,292,5.0,13.0,85,0.00,,,0.00,Wunderground v.1.15,2014-01-03 13:51:00,
2014-01-03 08:54:00,3.1,-0.4,-32.77,NW,323,5.0,13.0,85,0.00,,,0.00,Wunderground v.1.15,2014-01-03 13:54:00,
2014-01-03 08:55:00,3.1,-0.4,-32.77,NW,307,5.0,13.0,85,0.00,,,0.00,Wunderground v.1.15,2014-01-03 13:55:00,
2014-01-03 08:56:00,3.1,-0.4,-32.77,NW,311,5.0,13.0,85,0.00,,,0.00,Wunderground v.1.15,2014-01-03 13:56:00,
2014-01-03 08:59:00,3.1,-0.6,-32.77,WNW,302,4.0,13.0,84,0.00,,,0.00,Wunderground v.1.15,2014-01-03 13:59:00,
2014-01-03 09:00:00,3.1,-0.6,-32.77,WNW,290,4.0,13.0,84,0.00,,,0.00,Wunderground v.1.15,2014-01-03 14:00:00,
2014-01-03 09:03:00,3.1,-0.6,-32.77,WSW,250,5.0,13.0,84,0.00,,,0.00,Wunderground v.1.15,2014-01-03 14:03:00,
2014-01-03 09:04:00,3.1,-0.6,-32.77,West,271,5.0,13.0,84,0.00,,,0.00,Wunderground v.1.15,2014-01-03 14:04:00,
2014-01-03 09:05:00,3.0,-1.0,-32.77,West,268,5.0,13.0,83,0.00,,,0.00,Wunderground v.1.15,2014-01-03 14:05:00,
2014-01-03 09:06:00,3.1,-0.9,-32.77,NW,323,5.0,13.0,83,0.00,,,0.00,Wunderground v.1.15,2014-01-03 14:06:00,
2014-01-03 09:10:00,3.0,-1.0,-32.77,WNW,302,5.0,13.0,83,0.00,,,0.00,Wunderground v.1.15,2014-01-03 14:10:00,
2014-01-03 09:12:00,3.0,-1.0,-32.77,WNW,302,5.0,13.0,83,0.00,,,0.00,Wunderground v.1.15,2014-01-03 14:12:00,
2014-01-03 09:13:00,3.0,-1.0,-32.77,WNW,295,5.0,13.0,83,0.00,,,0.00,Wunderground v.1.15,2014-01-03 14:13:00,
2014-01-03 09:15:00,3.0,-1.0,-32.77,NW,311,5.0,13.0,83,0.00,,,0.00,Wunderground v.1.15,2014-01-03 14:15:00,
2014-01-03 09:18:00,3.0,-1.0,-32.77,WNW,290,5.0,13.0,83,0.00,,,0.00,Wunderground v.1.15,2014-01-03 14:18:00,
2014-01-03 09:19:00,3.0,-1.0,-32.77,West,277,5.0,13.0,83,0.00,,,0.00,Wunderground v.1.15,2014-01-03 14:19:00,
2014-01-03 09:21:00,3.1,-0.9,-32.77,WNW,289,5.0,13.0,83,0.00,,,0.00,Wunderground v.1.15,2014-01-03 14:21:00,
2014-01-03 09:24:00,3.0,-1.0,-32.77,West,276,5.0,13.0,83,0.00,,,0.00,Wunderground v.1.15,2014-01-03 14:24:00,
2014-01-03 09:27:00,3.0,-1.3,-32.77,West,280,6.0,13.0,82,0.00,,,0.00,Wunderground v.1.15,2014-01-03 14:27:00,
2014-01-03 09:29:00,3.0,-1.3,-32.77,WNW,303,5.0,13.0,82,0.00,,,0.00,Wunderground v.1.15,2014-01-03 14:29:00,
2014-01-03 09:30:00,3.0,-1.0,-32.77,NW,307,5.0,5.0,83,0.00,,,0.00,Wunderground v.1.15,2014-01-03 14:30:00,
2014-01-03 09:32:00,3.1,-0.9,-32.77,WNW,295,5.0,13.0,83,0.00,,,0.00,Wunderground v.1.15,2014-01-03 14:32:00,
2014-01-03 09:33:00,3.1,-1.2,-32.77,NNW,344,5.0,13.0,82,0.00,,,0.00,Wunderground v.1.15,2014-01-03 14:33:00,
2014-01-03 09:35:00,3.1,-1.2,-32.77,West,279,6.0,13.0,82,0.00,,,0.00,Wunderground v.1.15,2014-01-03 14:35:00,
2014-01-03 09:38:00,3.1,-1.2,-32.77,NW,313,6.0,13.0,82,0.00,,,0.00,Wunderground v.1.15,2014-01-03 14:38:00,
2014-01-03 09:40:00,3.0,-1.3,-32.77,NNW,327,6.0,13.0,82,0.00,,,0.00,Wunderground v.1.15,2014-01-03 14:40:00,
2014-01-03 09:42:00,3.1,-1.2,-32.77,West,269,6.0,13.0,82,0.00,,,0.00,Wunderground v.1.15,2014-01-03 14:42:00,
2014-01-03 09:44:00,3.1,-1.2,-32.77,NW,305,6.0,13.0,82,0.00,,,0.00,Wunderground v.1.15,2014-01-03 14:44:00,
2014-01-03 09:45:00,3.1,-1.2,-32.77,WNW,295,6.0,13.0,82,0.00,,,0.00,Wunderground v.1.15,2014-01-03 14:45:00,
2014-01-03 09:47:00,3.1,-1.4,-32.77,NW,322,6.0,13.0,81,0.00,,,0.00,Wunderground v.1.15,2014-01-03 14:47:00,
2014-01-03 09:49:00,3.0,-1.5,-32.77,West,272,6.0,13.0,81,0.00,,,0.00,Wunderground v.1.15,2014-01-03 14:49:00,
2014-01-03 09:51:00,3.1,-1.4,-32.77,WNW,299,7.0,16.0,81,0.00,,,0.00,Wunderground v.1.15,2014-01-03 14:51:00,
2014-01-03 09:52:00,3.0,-1.5,-32.77,NW,319,7.0,16.0,81,0.00,,,0.00,Wunderground v.1.15,2014-01-03 14:52:00,
2014-01-03 09:53:00,3.0,-1.5,-32.77,WNW,294,7.0,16.0,81,0.00,,,0.00,Wunderground v.1.15,2014-01-03 14:53:00,
2014-01-03 09:57:00,3.0,-1.5,-32.77,NNW,340,6.0,16.0,81,0.00,,,0.00,Wunderground v.1.15,2014-01-03 14:57:00,
2014-01-03 09:58:00,3.0,-1.5,-32.77,WNW,286,6.0,16.0,81,0.00,,,0.00,Wunderground v.1.15,2014-01-03 14:58:00,
2014-01-03 09:59:00,3.0,-1.3,-32.77,West,276,6.0,16.0,82,0.00,,,0.00,Wunderground v.1.15,2014-01-03 14:59:00,
2014-01-03 10:02:00,3.2,-1.1,-32.77,West,269,5.0,13.0,82,0.00,,,0.00,Wunderground v.1.15,2014-01-03 15:02:00,
2014-01-03 10:04:00,3.3,-1.0,-32.77,WSW,252,5.0,13.0,82,0.00,,,0.00,Wunderground v.1.15,2014-01-03 15:04:00,
2014-01-03 10:05:00,3.4,-0.9,-32.77,WNW,301,5.0,13.0,82,0.00,,,0.00,Wunderground v.1.15,2014-01-03 15:05:00,
2014-01-03 10:06:00,3.4,-1.1,-32.77,WNW,300,5.0,13.0,81,0.00,,,0.00,Wunderground v.1.15,2014-01-03 15:06:00,
2014-01-03 10:09:00,3.4,-1.1,-32.77,West,278,5.0,13.0,81,0.00,,,0.00,Wunderground v.1.15,2014-01-03 15:09:00,
2014-01-03 10:11:00,3.3,-1.2,-32.77,WNW,298,5.0,13.0,81,0.00,,,0.00,Wunderground v.1.15,2014-01-03 15:11:00,
2014-01-03 10:12:00,3.3,-1.2,-32.77,NW,306,5.0,13.0,81,0.00,,,0.00,Wunderground v.1.15,2014-01-03 15:12:00,
2014-01-03 10:15:00,3.3,-1.2,-32.77,WNW,284,5.0,13.0,81,0.00,,,0.00,Wunderground v.1.15,2014-01-03 15:15:00,
2014-01-03 10:17:00,3.3,-1.2,-32.77,WNW,298,6.0,13.0,81,0.00,,,0.00,Wunderground v.1.15,2014-01-03 15:17:00,
2014-01-03 10:19:00,3.3,-1.2,-32.77,WNW,289,6.0,13.0,81,0.00,,,0.00,Wunderground v.1.15,2014-01-03 15:19:00,
2014-01-03 10:20:00,3.4,-1.1,-32.77,NW,317,6.0,13.0,81,0.00,,,0.00,Wunderground v.1.15,2014-01-03 15:20:00,
2014-01-03 10:23:00,3.5,-1.0,-32.77,West,273,6.0,13.0,81,0.00,,,0.00,Wunderground v.1.15,2014-01-03 15:23:00,
2014-01-03 10:25:00,3.6,-0.9,-32.77,WNW,291,6.0,13.0,81,0.00,,,0.00,Wunderground v.1.15,2014-01-03 15:25:00,
2014-01-03 10:26:00,3.6,-0.9,-32.77,WNW,286,6.0,13.0,81,0.00,,,0.00,Wunderground v.1.15,2014-01-03 15:26:00,
2014-01-03 10:29:00,3.8,-0.7,-32.77,WNW,290,6.0,13.0,81,0.00,,,0.00,Wunderground v.1.15,2014-01-03 15:29:00,
2014-01-03 10:31:00,3.8,-1.0,-32.77,WNW,302,6.0,13.0,80,0.00,,,0.00,Wunderground v.1.15,2014-01-03 15:31:00,
2014-01-03 10:32:00,3.8,-1.0,-32.77,WNW,295,6.0,13.0,80,0.00,,,0.00,Wunderground v.1.15,2014-01-03 15:32:00,
2014-01-03 10:34:00,3.8,-0.7,-32.77,NW,306,5.0,13.0,81,0.00,,,0.00,Wunderground v.1.15,2014-01-03 15:34:00,
2014-01-03 10:36:00,3.7,-1.1,-32.77,WNW,285,6.0,14.0,80,0.00,,,0.00,Wunderground v.1.15,2014-01-03 15:36:00,
2014-01-03 10:37:00,3.8,-1.0,-32.77,WNW,300,6.0,14.0,80,0.00,,,0.00,Wunderground v.1.15,2014-01-03 15:37:00,
2014-01-03 10:38:00,3.8,-1.0,-32.77,WNW,294,6.0,14.0,80,0.00,,,0.00,Wunderground v.1.15,2014-01-03 15:38:00,
2014-01-03 10:40:00,3.9,-0.6,-32.77,WNW,296,6.0,6.0,81,0.00,,,0.00,Wunderground v.1.15,2014-01-03 15:40:00,
2014-01-03 10:41:00,3.9,-0.6,-32.77,WNW,293,6.0,13.0,81,0.00,,,0.00,Wunderground v.1.15,2014-01-03 15:41:00,
2014-01-03 10:44:00,4.1,-0.4,-32.77,NW,310,6.0,13.0,81,0.00,,,0.00,Wunderground v.1.15,2014-01-03 15:44:00,
2014-01-03 10:45:00,4.1,-0.4,-32.77,WNW,303,6.0,13.0,81,0.00,,,0.00,Wunderground v.1.15,2014-01-03 15:45:00,
2014-01-03 10:46:00,4.2,-0.3,-32.77,WNW,288,5.0,13.0,81,0.00,,,0.00,Wunderground v.1.15,2014-01-03 15:46:00,
2014-01-03 10:50:00,4.2,-0.6,-32.77,WNW,282,6.0,6.0,80,0.00,,,0.00,Wunderground v.1.15,2014-01-03 15:50:00,
2014-01-03 10:51:00,4.2,-0.6,-32.77,WNW,294,6.0,13.0,80,0.00,,,0.00,Wunderground v.1.15,2014-01-03 15:51:00,
2014-01-03 10:52:00,4.1,-0.7,-32.77,WNW,300,6.0,13.0,80,0.00,,,0.00,Wunderground v.1.15,2014-01-03 15:52:00,
2014-01-03 10:53:00,4.1,-0.7,-32.77,NW,311,6.0,13.0,80,0.00,,,0.00,Wunderground v.1.15,2014-01-03 15:53:00,
2014-01-03 10:55:00,4.0,-0.8,-32.77,WNW,283,7.0,13.0,80,0.00,,,0.00,Wunderground v.1.15,2014-01-03 15:55:00,
2014-01-03 10:58:00,3.8,-1.0,-32.77,WNW,298,6.0,13.0,80,0.00,,,0.00,Wunderground v.1.15,2014-01-03 15:58:00,
2014-01-03 11:02:00,3.8,-1.0,-32.77,WNW,288,6.0,13.0,80,0.00,,,0.00,Wunderground v.1.15,2014-01-03 16:02:00,
2014-01-03 11:03:00,3.8,-0.7,-32.77,WNW,299,6.0,13.0,81,0.00,,,0.00,Wunderground v.1.15,2014-01-03 16:03:00,
2014-01-03 11:04:00,3.9,-0.6,-32.77,WNW,302,5.0,13.0,81,0.00,,,0.00,Wunderground v.1.15,2014-01-03 16:04:00,
2014-01-03 11:07:00,4.0,-0.5,-32.77,WNW,295,5.0,13.0,81,0.00,,,0.00,Wunderground v.1.15,2014-01-03 16:07:00,
2014-01-03 11:08:00,3.9,-0.6,-32.77,WNW,291,5.0,13.0,81,0.00,,,0.00,Wunderground v.1.15,2014-01-03 16:08:00,
2014-01-03 11:09:00,4.0,-0.5,-32.77,West,272,5.0,13.0,81,0.00,,,0.00,Wunderground v.1.15,2014-01-03 16:09:00,
2014-01-03 11:13:00,4.1,-0.7,-32.77,WNW,289,5.0,13.0,80,0.00,,,0.00,Wunderground v.1.15,2014-01-03 16:13:00,
2014-01-03 11:15:00,4.1,-0.4,-32.77,WNW,282,5.0,13.0,81,0.00,,,0.00,Wunderground v.1.15,2014-01-03 16:15:00,
2014-01-03 11:17:00,4.2,-0.3,-32.77,WNW,298,4.0,13.0,81,0.00,,,0.00,Wunderground v.1.15,2014-01-03 16:17:00,
2014-01-03 11:18:00,4.2,-0.3,-32.77,WNW,298,4.0,13.0,81,0.00,,,0.00,Wunderground v.1.15,2014-01-03 16:18:00,
2014-01-03 11:20:00,4.2,-0.3,-32.77,NW,310,5.0,5.0,81,0.00,,,0.00,Wunderground v.1.15,2014-01-03 16:20:00,
2014-01-03 11:21:00,4.2,-0.3,-32.77,WNW,290,5.0,13.0,81,0.00,,,0.00,Wunderground v.1.15,2014-01-03 16:21:00,
2014-01-03 11:23:00,4.3,-0.5,-32.77,WNW,300,5.0,13.0,80,0.00,,,0.00,Wunderground v.1.15,2014-01-03 16:23:00,
2014-01-03 11:24:00,4.3,-0.2,-32.77,NW,318,5.0,13.0,81,0.00,,,0.00,Wunderground v.1.15,2014-01-03 16:24:00,
2014-01-03 11:26:00,4.4,-0.1,-32.77,West,281,5.0,13.0,81,0.00,,,0.00,Wunderground v.1.15,2014-01-03 16:26:00,
2014-01-03 11:27:00,4.4,-0.4,-32.77,NW,311,6.0,13.0,80,0.00,,,0.00,Wunderground v.1.15,2014-01-03 16:27:00,
2014-01-03 11:28:00,4.4,-0.1,-32.77,WNW,302,6.0,13.0,81,0.00,,,0.00,Wunderground v.1.15,2014-01-03 16:28:00,
2014-01-03 11:31:00,4.3,-0.2,-32.77,WNW,292,6.0,13.0,81,0.00,,,0.00,Wunderground v.1.15,2014-01-03 16:31:00,
2014-01-03 11:32:00,4.3,-0.2,-32.77,West,270,5.0,13.0,81,0.00,,,0.00,Wunderground v.1.15,2014-01-03 16:32:00,
2014-01-03 11:33:00,4.4,-0.1,-32.77,West,262,5.0,13.0,81,0.00,,,0.00,Wunderground v.1.15,2014-01-03 16:33:00,
2014-01-03 11:35:00,4.5,0.0,-32.77,WNW,302,5.0,13.0,81,0.00,,,0.00,Wunderground v.1.15,2014-01-03 16:35:00,
2014-01-03 11:36:00,4.5,0.0,-32.77,NW,315,5.0,13.0,81,0.00,,,0.00,Wunderground v.1.15,2014-01-03 16:36:00,
2014-01-03 11:38:00,4.6,0.1,-32.77,WSW,237,4.0,13.0,81,0.00,,,0.00,Wunderground v.1.15,2014-01-03 16:38:00,
2014-01-03 11:39:00,4.6,0.1,-32.77,West,272,4.0,13.0,81,0.00,,,0.00,Wunderground v.1.15,2014-01-03 16:39:00,
2014-01-03 11:40:00,4.7,0.2,-32.77,WNW,291,4.0,13.0,81,0.00,,,0.00,Wunderground v.1.15,2014-01-03 16:40:00,
2014-01-03 11:41:00,4.6,-0.2,-32.77,WNW,303,5.0,13.0,80,0.00,,,0.00,Wunderground v.1.15,2014-01-03 16:41:00,
2014-01-03 11:44:00,4.3,-0.5,-32.77,WNW,291,5.0,13.0,80,0.00,,,0.00,Wunderground v.1.15,2014-01-03 16:44:00,
2014-01-03 11:45:00,4.3,-0.5,-32.77,WNW,294,6.0,13.0,80,0.00,,,0.00,Wunderground v.1.15,2014-01-03 16:45:00,
2014-01-03 11:46:00,4.2,-0.6,-32.77,NW,310,6.0,13.0,80,0.00,,,0.00,Wunderground v.1.15,2014-01-03 16:46:00,
2014-01-03 11:48:00,4.2,-0.6,-32.77,WNW,297,6.0,13.0,80,0.00,,,0.00,Wunderground v.1.15,2014-01-03 16:48:00,
2014-01-03 11:50:00,4.2,-0.6,-32.77,West,264,6.0,6.0,80,0.00,,,0.00,Wunderground v.1.15,2014-01-03 16:50:00,
2014-01-03 11:52:00,4.4,-0.4,-32.77,WNW,286,5.0,13.0,80,0.00,,,0.00,Wunderground v.1.15,2014-01-03 16:52:00,
2014-01-03 11:53:00,4.5,-0.3,-32.77,WNW,292,5.0,13.0,80,0.00,,,0.00,Wunderground v.1.15,2014-01-03 16:53:00,
2014-01-03 11:54:00,4.6,0.1,-32.77,West,261,5.0,13.0,81,0.00,,,0.00,Wunderground v.1.15,2014-01-03 16:54:00,
2014-01-03 11:57:00,5.0,0.4,-32.77,WSW,257,5.0,13.0,81,0.00,,,0.00,Wunderground v.1.15,2014-01-03 16:57:00,
2014-01-03 12:00:00,5.1,0.3,-32.77,NNW,327,4.0,13.0,80,0.00,,,0.00,Wunderground v.1.15,2014-01-03 17:00:00,
2014-01-03 12:01:00,5.1,0.3,-32.77,WNW,298,5.0,13.0,80,0.00,,,0.00,Wunderground v.1.15,2014-01-03 17:01:00,
2014-01-03 12:02:00,5.0,-0.1,-32.77,NW,321,5.0,13.0,79,0.00,,,0.00,Wunderground v.1.15,2014-01-03 17:02:00,
2014-01-03 12:05:00,4.6,-0.8,-32.77,WNW,299,6.0,13.0,78,0.00,,,0.00,Wunderground v.1.15,2014-01-03 17:05:00,
2014-01-03 12:06:00,4.5,-0.8,-32.77,NW,305,6.0,13.0,78,0.00,,,0.00,Wunderground v.1.15,2014-01-03 17:06:00,
2014-01-03 12:09:00,4.3,-1.0,-32.77,NW,313,7.0,13.0,78,0.00,,,0.00,Wunderground v.1.15,2014-01-03 17:09:00,
2014-01-03 12:10:00,4.3,-1.0,-32.77,WSW,250,7.0,7.0,78,0.00,,,0.00,Wunderground v.1.15,2014-01-03 17:10:00,
2014-01-03 12:11:00,4.3,-1.0,-32.77,NNW,334,7.0,13.0,78,0.00,,,0.00,Wunderground v.1.15,2014-01-03 17:11:00,
2014-01-03 12:12:00,4.3,-0.8,-32.77,NW,306,7.0,13.0,79,0.00,,,0.00,Wunderground v.1.15,2014-01-03 17:12:00,
2014-01-03 12:15:00,4.5,-0.3,-32.77,WNW,296,6.0,13.0,80,0.00,,,0.00,Wunderground v.1.15,2014-01-03 17:15:00,
2014-01-03 12:16:00,4.6,-0.2,-32.77,NW,307,6.0,13.0,80,0.00,,,0.00,Wunderground v.1.15,2014-01-03 17:16:00,
2014-01-03 12:17:00,4.7,-0.1,-32.77,West,280,6.0,13.0,80,0.00,,,0.00,Wunderground v.1.15,2014-01-03 17:17:00,
2014-01-03 12:18:00,4.6,-0.5,-32.77,NW,324,6.0,13.0,79,0.00,,,0.00,Wunderground v.1.15,2014-01-03 17:18:00,
2014-01-03 12:19:00,4.6,-0.8,-32.77,NW,322,6.0,13.0,78,0.00,,,0.00,Wunderground v.1.15,2014-01-03 17:19:00,
2014-01-03 12:20:00,4.6,-0.8,-32.77,West,277,6.0,6.0,78,0.00,,,0.00,Wunderground v.1.15,2014-01-03 17:20:00,
2014-01-03 12:22:00,4.6,-0.8,-32.77,WNW,303,5.0,13.0,78,0.00,,,0.00,Wunderground v.1.15,2014-01-03 17:22:00,
2014-01-03 12:24:00,4.8,-0.3,-32.77,WNW,299,5.0,13.0,79,0.00,,,0.00,Wunderground v.1.15,2014-01-03 17:24:00,
2014-01-03 12:25:00,4.8,-0.3,-32.77,West,265,5.0,13.0,79,0.00,,,0.00,Wunderground v.1.15,2014-01-03 17:25:00,
2014-01-03 12:28:00,5.0,-0.1,-32.77,West,281,4.0,13.0,79,0.00,,,0.00,Wunderground v.1.15,2014-01-03 17:28:00,
2014-01-03 12:29:00,5.0,2.2,-32.77,West,263,4.0,13.0,88,0.00,,,0.00,Wunderground v.1.15,2014-01-03 17:29:00,
2014-01-03 12:31:00,5.1,0.0,-32.77,West,280,4.0,13.0,79,0.00,,,0.00,Wunderground v.1.15,2014-01-03 17:31:00,
2014-01-03 12:33:00,5.2,-0.2,-32.77,WNW,282,4.0,13.0,78,0.00,,,0.00,Wunderground v.1.15,2014-01-03 17:33:00,
2014-01-03 12:36:00,5.4,0.0,-32.77,WNW,294,4.0,13.0,78,0.00,,,0.00,Wunderground v.1.15,2014-01-03 17:36:00,
2014-01-03 12:38:00,5.3,-0.3,-32.77,NW,312,5.0,13.0,77,0.00,,,0.00,Wunderground v.1.15,2014-01-03 17:38:00,
2014-01-03 12:43:00,4.9,-0.7,-32.77,WNW,290,6.0,14.0,77,0.00,,,0.00,Wunderground v.1.15,2014-01-03 17:43:00,
2014-01-03 12:44:00,4.9,-0.7,-32.77,West,269,6.0,14.0,77,0.00,,,0.00,Wunderground v.1.15,2014-01-03 17:44:00,
2014-01-03 12:46:00,4.9,-0.7,-32.77,NW,313,6.0,14.0,77,0.00,,,0.00,Wunderground v.1.15,2014-01-03 17:46:00,
2014-01-03 12:47:00,5.0,-0.6,-32.77,WNW,293,6.0,14.0,77,0.00,,,0.00,Wunderground v.1.15,2014-01-03 17:47:00,
2014-01-03 12:48:00,4.9,-1.0,-32.77,WNW,286,6.0,14.0,76,0.00,,,0.00,Wunderground v.1.15,2014-01-03 17:48:00,
2014-01-03 12:49:00,4.9,-0.7,-32.77,NW,307,6.0,14.0,77,0.00,,,0.00,Wunderground v.1.15,2014-01-03 17:49:00,
2014-01-03 12:51:00,4.9,-1.0,-32.77,West,269,5.0,13.0,76,0.00,,,0.00,Wunderground v.1.15,2014-01-03 17:51:00,
2014-01-03 12:53:00,4.9,-0.7,-32.77,WNW,295,5.0,13.0,77,0.00,,,0.00,Wunderground v.1.15,2014-01-03 17:53:00,
2014-01-03 12:56:00,5.0,-0.6,-32.77,NW,318,6.0,13.0,77,0.00,,,0.00,Wunderground v.1.15,2014-01-03 17:56:00,
2014-01-03 12:57:00,5.0,1.5,-32.77,WNW,295,6.0,13.0,85,0.00,,,0.00,Wunderground v.1.15,2014-01-03 17:57:00,
2014-01-03 12:59:00,4.9,-1.0,-32.77,WNW,292,6.0,13.0,76,0.00,,,0.00,Wunderground v.1.15,2014-01-03 17:59:00,
2014-01-03 13:03:00,4.9,-0.7,-32.77,WNW,296,6.0,13.0,77,0.00,,,0.00,Wunderground v.1.15,2014-01-03 18:03:00,
2014-01-03 13:04:00,4.9,-0.7,-32.77,North,355,6.0,13.0,77,0.00,,,0.00,Wunderground v.1.15,2014-01-03 18:04:00,
2014-01-03 13:05:00,4.9,-0.7,-32.77,NW,308,6.0,13.0,77,0.00,,,0.00,Wunderground v.1.15,2014-01-03 18:05:00,
2014-01-03 13:06:00,4.9,-1.0,-32.77,WNW,299,6.0,13.0,76,0.00,,,0.00,Wunderground v.1.15,2014-01-03 18:06:00,
2014-01-03 13:09:00,5.0,-0.6,-32.77,NW,311,5.0,13.0,77,0.00,,,0.00,Wunderground v.1.15,2014-01-03 18:09:00,
2014-01-03 13:12:00,5.2,-0.4,-32.77,WNW,296,5.0,13.0,77,0.00,,,0.00,Wunderground v.1.15,2014-01-03 18:12:00,
2014-01-03 13:13:00,5.3,-0.3,-32.77,NW,305,5.0,13.0,77,0.00,,,0.00,Wunderground v.1.15,2014-01-03 18:13:00,
2014-01-03 13:17:00,5.6,-0.1,-32.77,WNW,287,5.0,13.0,77,0.00,,,0.00,Wunderground v.1.15,2014-01-03 18:17:00,
2014-01-03 13:18:00,5.6,-0.1,-32.77,West,271,5.0,13.0,77,0.00,,,0.00,Wunderground v.1.15,2014-01-03 18:18:00,
2014-01-03 13:19:00,5.6,-0.3,-32.77,West,276,5.0,13.0,76,0.00,,,0.00,Wunderground v.1.15,2014-01-03 18:19:00,
2014-01-03 13:20:00,5.7,-0.2,-32.77,NW,311,5.0,13.0,76,0.00,,,0.00,Wunderground v.1.15,2014-01-03 18:20:00,
2014-01-03 13:21:00,5.7,-0.2,-32.77,WNW,296,5.0,13.0,76,0.00,,,0.00,Wunderground v.1.15,2014-01-03 18:21:00,
2014-01-03 13:24:00,5.9,0.0,-32.77,WNW,300,5.0,13.0,76,0.00,,,0.00,Wunderground v.1.15,2014-01-03 18:24:00,
2014-01-03 13:25:00,6.0,0.1,-32.77,West,273,5.0,13.0,76,0.00,,,0.00,Wunderground v.1.15,2014-01-03 18:25:00,
2014-01-03 13:26:00,6.0,0.1,-32.77,West,277,5.0,13.0,76,0.00,,,0.00,Wunderground v.1.15,2014-01-03 18:26:00,
2014-01-03 13:28:00,6.1,0.2,-32.77,West,265,5.0,13.0,76,0.00,,,0.00,Wunderground v.1.15,2014-01-03 18:28:00,
2014-01-03 13:30:00,6.2,0.3,-32.77,West,259,5.0,13.0,76,0.00,,,0.00,Wunderground v.1.15,2014-01-03 18:30:00,
2014-01-03 13:31:00,6.2,0.3,-32.77,West,277,5.0,13.0,76,0.00,,,0.00,Wunderground v.1.15,2014-01-03 18:31:00,
2014-01-03 13:36:00,6.1,0.2,-32.77,WNW,290,5.0,13.0,76,0.00,,,0.00,Wunderground v.1.15,2014-01-03 18:36:00,
2014-01-03 13:37:00,6.2,0.3,-32.77,WNW,286,5.0,13.0,76,0.00,,,0.00,Wunderground v.1.15,2014-01-03 18:37:00,
2014-01-03 13:38:00,6.2,0.3,-32.77,West,271,5.0,13.0,76,0.00,,,0.00,Wunderground v.1.15,2014-01-03 18:38:00,
2014-01-03 13:39:00,6.2,0.3,-32.77,WNW,298,5.0,13.0,76,0.00,,,0.00,Wunderground v.1.15,2014-01-03 18:39:00,
2014-01-03 13:43:00,6.2,0.0,-32.77,West,281,4.0,13.0,75,0.00,,,0.00,Wunderground v.1.15,2014-01-03 18:43:00,
2014-01-03 13:45:00,6.1,-0.1,-32.77,NW,309,4.0,13.0,75,0.00,,,0.00,Wunderground v.1.15,2014-01-03 18:45:00,
2014-01-03 13:46:00,6.0,-0.5,-32.77,West,280,4.0,13.0,74,0.00,,,0.00,Wunderground v.1.15,2014-01-03 18:46:00,
2014-01-03 13:47:00,6.0,-0.2,-32.77,WNW,287,4.0,13.0,75,0.00,,,0.00,Wunderground v.1.15,2014-01-03 18:47:00,
2014-01-03 13:51:00,6.0,-0.2,-32.77,NW,310,4.0,13.0,75,0.00,,,0.00,Wunderground v.1.15,2014-01-03 18:51:00,
2014-01-03 13:52:00,5.9,-0.6,-32.77,WNW,287,5.0,13.0,74,0.00,,,0.00,Wunderground v.1.15,2014-01-03 18:52:00,
2014-01-03 13:53:00,5.8,-0.7,-32.77,WNW,298,5.0,13.0,74,0.00,,,0.00,Wunderground v.1.15,2014-01-03 18:53:00,
2014-01-03 13:55:00,5.7,-0.5,-32.77,NW,311,5.0,13.0,75,0.00,,,0.00,Wunderground v.1.15,2014-01-03 18:55:00,
2014-01-03 13:59:00,5.6,-0.6,-32.77,WNW,303,5.0,13.0,75,0.00,,,0.00,Wunderground v.1.15,2014-01-03 18:59:00,
2014-01-03 14:00:00,5.6,-0.6,-32.77,West,279,5.0,5.0,75,0.00,,,0.00,Wunderground v.1.15,2014-01-03 19:00:00,
2014-01-03 14:01:00,5.5,-0.4,-32.77,NNW,327,5.0,6.0,76,0.00,,,0.00,Wunderground v.1.15,2014-01-03 19:01:00,
2014-01-03 14:02:00,5.5,-0.4,-32.77,NW,311,4.0,13.0,76,0.00,,,0.00,Wunderground v.1.15,2014-01-03 19:02:00,
2014-01-03 14:03:00,5.5,-0.4,-32.77,WNW,294,4.0,13.0,76,0.00,,,0.00,Wunderground v.1.15,2014-01-03 19:03:00,
2014-01-03 14:05:00,5.4,-0.8,-32.77,NW,304,4.0,13.0,75,0.00,,,0.00,Wunderground v.1.15,2014-01-03 19:05:00,
2014-01-03 14:06:00,5.4,-0.5,-32.77,NW,307,4.0,13.0,76,0.00,,,0.00,Wunderground v.1.15,2014-01-03 19:06:00,
2014-01-03 14:09:00,5.4,-0.5,-32.77,WNW,296,4.0,13.0,76,0.00,,,0.00,Wunderground v.1.15,2014-01-03 19:09:00,
2014-01-03 14:10:00,5.4,-0.5,-32.77,WNW,295,4.0,13.0,76,0.00,,,0.00,Wunderground v.1.15,2014-01-03 19:10:00,
2014-01-03 14:12:00,5.4,-0.5,-32.77,WNW,288,4.0,13.0,76,0.00,,,0.00,Wunderground v.1.15,2014-01-03 19:12:00,
2014-01-03 14:13:00,5.3,-0.6,-32.77,West,266,4.0,13.0,76,0.00,,,0.00,Wunderground v.1.15,2014-01-03 19:13:00,
2014-01-03 14:14:00,5.3,-0.6,-32.77,West,281,4.0,13.0,76,0.00,,,0.00,Wunderground v.1.15,2014-01-03 19:14:00,
2014-01-03 14:17:00,5.3,-0.6,-32.77,West,267,3.0,13.0,76,0.00,,,0.00,Wunderground v.1.15,2014-01-03 19:17:00,
2014-01-03 14:19:00,5.3,-0.6,-32.77,WNW,285,4.0,13.0,76,0.00,,,0.00,Wunderground v.1.15,2014-01-03 19:19:00,
2014-01-03 14:22:00,5.4,-0.5,-32.77,West,281,3.0,13.0,76,0.00,,,0.00,Wunderground v.1.15,2014-01-03 19:22:00,
2014-01-03 14:23:00,5.4,-0.5,-32.77,West,272,3.0,13.0,76,0.00,,,0.00,Wunderground v.1.15,2014-01-03 19:23:00,
2014-01-03 14:24:00,5.4,-0.5,-32.77,WNW,286,3.0,13.0,76,0.00,,,0.00,Wunderground v.1.15,2014-01-03 19:24:00,
2014-01-03 14:25:00,5.4,-0.5,-32.77,NW,308,3.0,13.0,76,0.00,,,0.00,Wunderground v.1.15,2014-01-03 19:25:00,
2014-01-03 14:27:00,5.4,-0.8,-32.77,WNW,284,3.0,13.0,75,0.00,,,0.00,Wunderground v.1.15,2014-01-03 19:27:00,
2014-01-03 14:29:00,5.4,-0.8,-32.77,WNW,299,3.0,13.0,75,0.00,,,0.00,Wunderground v.1.15,2014-01-03 19:29:00,
2014-01-03 14:31:00,5.4,-0.8,-32.77,NW,313,3.0,13.0,75,0.00,,,0.00,Wunderground v.1.15,2014-01-03 19:31:00,
2014-01-03 14:33:00,5.4,-0.5,-32.77,WNW,283,3.0,13.0,76,0.00,,,0.00,Wunderground v.1.15,2014-01-03 19:33:00,
2014-01-03 14:34:00,5.4,-0.5,-32.77,WNW,303,3.0,13.0,76,0.00,,,0.00,Wunderground v.1.15,2014-01-03 19:34:00,
2014-01-03 14:36:00,5.4,-0.5,-32.77,WNW,293,3.0,13.0,76,0.00,,,0.00,Wunderground v.1.15,2014-01-03 19:36:00,
2014-01-03 14:38:00,5.4,-0.5,-32.77,West,271,2.0,13.0,76,0.00,,,0.00,Wunderground v.1.15,2014-01-03 19:38:00,
2014-01-03 14:41:00,5.4,-0.5,-32.77,NW,310,2.0,13.0,76,0.00,,,0.00,Wunderground v.1.15,2014-01-03 19:41:00,
2014-01-03 14:42:00,5.4,-0.5,-32.77,West,273,2.0,13.0,76,0.00,,,0.00,Wunderground v.1.15,2014-01-03 19:42:00,
2014-01-03 14:43:00,5.5,-0.7,-32.77,West,277,2.0,13.0,75,0.00,,,0.00,Wunderground v.1.15,2014-01-03 19:43:00,
2014-01-03 14:44:00,5.5,-0.7,-32.77,WNW,284,2.0,13.0,75,0.00,,,0.00,Wunderground v.1.15,2014-01-03 19:44:00,
2014-01-03 14:46:00,5.5,-0.7,-32.77,WSW,250,2.0,13.0,75,0.00,,,0.00,Wunderground v.1.15,2014-01-03 19:46:00,
2014-01-03 14:47:00,5.5,-0.7,-32.77,West,271,3.0,13.0,75,0.00,,,0.00,Wunderground v.1.15,2014-01-03 19:47:00,
2014-01-03 14:50:00,5.5,-0.7,-32.77,WNW,290,3.0,3.0,75,0.00,,,0.00,Wunderground v.1.15,2014-01-03 19:50:00,
2014-01-03 14:51:00,5.5,-0.7,-32.77,WNW,288,3.0,13.0,75,0.00,,,0.00,Wunderground v.1.15,2014-01-03 19:51:00,
2014-01-03 14:52:00,5.5,-0.4,-32.77,WSW,252,3.0,13.0,76,0.00,,,0.00,Wunderground v.1.15,2014-01-03 19:52:00,
2014-01-03 14:55:00,5.5,-0.7,-32.77,West,265,3.0,13.0,75,0.00,,,0.00,Wunderground v.1.15,2014-01-03 19:55:00,
2014-01-03 14:56:00,5.5,-0.7,-32.77,WNW,287,3.0,13.0,75,0.00,,,0.00,Wunderground v.1.15,2014-01-03 19:56:00,
2014-01-03 15:01:00,5.5,-0.7,-32.77,WNW,294,3.0,13.0,75,0.00,,,0.00,Wunderground v.1.15,2014-01-03 20:01:00,
2014-01-03 15:02:00,5.5,-0.7,-32.77,WNW,294,3.0,13.0,75,0.00,,,0.00,Wunderground v.1.15,2014-01-03 20:02:00,
2014-01-03 15:04:00,5.5,-0.7,-32.77,West,264,3.0,13.0,75,0.00,,,0.00,Wunderground v.1.15,2014-01-03 20:04:00,
2014-01-03 15:06:00,5.5,-0.7,-32.77,WNW,295,3.0,13.0,75,0.00,,,0.00,Wunderground v.1.15,2014-01-03 20:06:00,
2014-01-03 15:07:00,5.5,-0.7,-32.77,WSW,245,3.0,13.0,75,0.00,,,0.00,Wunderground v.1.15,2014-01-03 20:07:00,
2014-01-03 15:08:00,5.6,-0.6,-32.77,WNW,296,3.0,13.0,75,0.00,,,0.00,Wunderground v.1.15,2014-01-03 20:08:00,
2014-01-03 15:09:00,5.6,-0.6,-32.77,WNW,290,3.0,13.0,75,0.00,,,0.00,Wunderground v.1.15,2014-01-03 20:09:00,
2014-01-03 15:10:00,5.6,-0.6,-32.77,West,274,3.0,13.0,75,0.00,,,0.00,Wunderground v.1.15,2014-01-03 20:10:00,
2014-01-03 15:12:00,5.6,-0.9,-32.77,West,261,3.0,13.0,74,0.00,,,0.00,Wunderground v.1.15,2014-01-03 20:12:00,
2014-01-03 15:13:00,5.7,-0.8,-32.77,WNW,283,3.0,13.0,74,0.00,,,0.00,Wunderground v.1.15,2014-01-03 20:13:00,
2014-01-03 15:17:00,5.7,-0.8,-32.77,NW,306,3.0,13.0,74,0.00,,,0.00,Wunderground v.1.15,2014-01-03 20:17:00,
2014-01-03 15:18:00,5.6,-0.9,-32.77,NW,311,4.0,13.0,74,0.00,,,0.00,Wunderground v.1.15,2014-01-03 20:18:00,
2014-01-03 15:19:00,5.6,-0.9,-32.77,WNW,302,4.0,13.0,74,0.00,,,0.00,Wunderground v.1.15,2014-01-03 20:19:00,
2014-01-03 15:24:00,5.6,-1.2,-32.77,WNW,296,3.0,13.0,73,0.00,,,0.00,Wunderground v.1.15,2014-01-03 20:24:00,
2014-01-03 15:25:00,5.6,-1.2,-32.77,West,277,3.0,13.0,73,0.00,,,0.00,Wunderground v.1.15,2014-01-03 20:25:00,
2014-01-03 15:27:00,5.6,-0.9,-32.77,WNW,284,3.0,13.0,74,0.00,,,0.00,Wunderground v.1.15,2014-01-03 20:27:00,
2014-01-03 15:29:00,5.6,-0.9,-32.77,NW,304,3.0,13.0,74,0.00,,,0.00,Wunderground v.1.15,2014-01-03 20:29:00,
2014-01-03 15:30:00,5.6,-0.9,-32.77,WNW,300,3.0,13.0,74,0.00,,,0.00,Wunderground v.1.15,2014-01-03 20:30:00,
2014-01-03 15:33:00,5.5,-0.7,-32.77,WNW,288,3.0,13.0,75,0.00,,,0.00,Wunderground v.1.15,2014-01-03 20:33:00,
2014-01-03 15:35:00,5.5,-1.0,-32.77,WNW,294,3.0,13.0,74,0.00,,,0.00,Wunderground v.1.15,2014-01-03 20:35:00,
2014-01-03 15:39:00,5.5,-1.0,-32.77,NW,321,3.0,13.0,74,0.00,,,0.00,Wunderground v.1.15,2014-01-03 20:39:00,
2014-01-03 15:40:00,5.4,-1.1,-32.77,WNW,298,3.0,3.0,74,0.00,,,0.00,Wunderground v.1.15,2014-01-03 20:40:00,
2014-01-03 15:42:00,5.5,-0.7,-32.77,NNW,333,2.0,13.0,75,0.00,,,0.00,Wunderground v.1.15,2014-01-03 20:42:00,
2014-01-03 15:44:00,5.5,-0.7,-32.77,NW,322,3.0,13.0,75,0.00,,,0.00,Wunderground v.1.15,2014-01-03 20:44:00,
2014-01-03 15:45:00,5.5,-0.7,-32.77,NW,313,3.0,13.0,75,0.00,,,0.00,Wunderground v.1.15,2014-01-03 20:45:00,
2014-01-03 15:48:00,5.5,-0.7,-32.77,WNW,292,3.0,13.0,75,0.00,,,0.00,Wunderground v.1.15,2014-01-03 20:48:00,
2014-01-03 15:49:00,5.5,-0.7,-32.77,NW,321,2.0,13.0,75,0.00,,,0.00,Wunderground v.1.15,2014-01-03 20:49:00,
2014-01-03 15:50:00,5.6,-0.3,-32.77,WNW,299,2.0,13.0,76,0.00,,,0.00,Wunderground v.1.15,2014-01-03 20:50:00,
2014-01-03 15:51:00,5.6,-0.6,-32.77,WNW,290,2.0,13.0,75,0.00,,,0.00,Wunderground v.1.15,2014-01-03 20:51:00,
2014-01-03 15:54:00,5.6,-0.6,-32.77,WNW,294,2.0,13.0,75,0.00,,,0.00,Wunderground v.1.15,2014-01-03 20:54:00,
2014-01-03 15:55:00,5.6,-0.6,-32.77,West,281,2.0,13.0,75,0.00,,,0.00,Wunderground v.1.15,2014-01-03 20:55:00,
2014-01-03 15:56:00,5.6,-0.6,-32.77,WNW,282,1.0,13.0,75,0.00,,,0.00,Wunderground v.1.15,2014-01-03 20:56:00,
2014-01-03 15:57:00,5.6,-0.3,-32.77,WNW,283,1.0,13.0,76,0.00,,,0.00,Wunderground v.1.15,2014-01-03 20:57:00,
2014-01-03 16:00:00,5.7,-0.5,-32.77,WSW,252,1.0,13.0,75,0.00,,,0.00,Wunderground v.1.15,2014-01-03 21:00:00,
2014-01-03 16:02:00,5.7,-0.2,-32.77,WSW,238,1.0,13.0,76,0.00,,,0.00,Wunderground v.1.15,2014-01-03 21:02:00,
2014-01-03 16:04:00,5.7,-0.5,-32.77,WNW,294,1.0,13.0,75,0.00,,,0.00,Wunderground v.1.15,2014-01-03 21:04:00,
2014-01-03 16:06:00,5.7,-0.5,-32.77,NW,312,1.0,13.0,75,0.00,,,0.00,Wunderground v.1.15,2014-01-03 21:06:00,
2014-01-03 16:08:00,5.6,-0.3,-32.77,West,277,1.0,13.0,76,0.00,,,0.00,Wunderground v.1.15,2014-01-03 21:08:00,
2014-01-03 16:09:00,5.6,-0.3,-32.77,West,280,1.0,13.0,76,0.00,,,0.00,Wunderground v.1.15,2014-01-03 21:09:00,
2014-01-03 16:12:00,5.6,-0.6,-32.77,West,280,1.0,13.0,75,0.00,,,0.00,Wunderground v.1.15,2014-01-03 21:12:00,
2014-01-03 16:13:00,5.6,-0.3,-32.77,West,280,1.0,13.0,76,0.00,,,0.00,Wunderground v.1.15,2014-01-03 21:13:00,
2014-01-03 16:14:00,5.6,-0.3,-32.77,West,280,1.0,13.0,76,0.00,,,0.00,Wunderground v.1.15,2014-01-03 21:14:00,
2014-01-03 16:19:00,5.4,-0.8,-32.77,NW,306,0.0,13.0,75,0.00,,,0.00,Wunderground v.1.15,2014-01-03 21:19:00,
2014-01-03 16:20:00,5.4,-0.5,-32.77,NW,306,0.0,13.0,76,0.00,,,0.00,Wunderground v.1.15,2014-01-03 21:20:00,
2014-01-03 16:21:00,5.3,-0.6,-32.77,NW,306,0.0,13.0,76,0.00,,,0.00,Wunderground v.1.15,2014-01-03 21:21:00,
2014-01-03 16:24:00,5.2,-0.7,-32.77,WNW,284,0.0,13.0,76,0.00,,,0.00,Wunderground v.1.15,2014-01-03 21:24:00,
2014-01-03 16:25:00,5.2,-0.7,-32.77,WNW,283,0.0,13.0,76,0.00,,,0.00,Wunderground v.1.15,2014-01-03 21:25:00,
2014-01-03 16:26:00,5.1,-0.8,-32.77,WNW,283,0.0,13.0,76,0.00,,,0.00,Wunderground v.1.15,2014-01-03 21:26:00,
2014-01-03 16:27:00,5.1,-0.8,-32.77,WNW,291,0.0,13.0,76,0.00,,,0.00,Wunderground v.1.15,2014-01-03 21:27:00,
2014-01-03 16:31:00,5.0,-1.2,-32.77,NNW,329,0.0,13.0,75,0.00,,,0.00,Wunderground v.1.15,2014-01-03 21:31:00,
2014-01-03 16:32:00,4.9,-1.3,-32.77,NNW,329,0.0,13.0,75,0.00,,,0.00,Wunderground v.1.15,2014-01-03 21:32:00,
2014-01-03 16:33:00,4.9,-1.0,-32.77,NNW,329,0.0,13.0,76,0.00,,,0.00,Wunderground v.1.15,2014-01-03 21:33:00,
2014-01-03 16:34:00,4.9,-1.0,-32.77,NNW,329,0.0,13.0,76,0.00,,,0.00,Wunderground v.1.15,2014-01-03 21:34:00,
2014-01-03 16:36:00,4.7,-1.2,-32.77,NNW,329,0.0,13.0,76,0.00,,,0.00,Wunderground v.1.15,2014-01-03 21:36:00,
2014-01-03 16:39:00,4.6,-1.3,-32.77,NW,323,0.0,13.0,76,0.00,,,0.00,Wunderground v.1.15,2014-01-03 21:39:00,
2014-01-03 16:41:00,4.5,-1.1,-32.77,NW,323,0.0,13.0,77,0.00,,,0.00,Wunderground v.1.15,2014-01-03 21:41:00,
2014-01-03 16:42:00,4.5,-1.1,-32.77,NW,323,0.0,13.0,77,0.00,,,0.00,Wunderground v.1.15,2014-01-03 21:42:00,
2014-01-03 16:46:00,4.3,-1.3,-32.77,NW,321,0.0,13.0,77,0.00,,,0.00,Wunderground v.1.15,2014-01-03 21:46:00,
2014-01-03 16:47:00,4.2,-1.7,-32.77,NW,321,0.0,13.0,76,0.00,,,0.00,Wunderground v.1.15,2014-01-03 21:47:00,
2014-01-03 16:48:00,4.0,-2.2,-32.77,NW,321,0.0,13.0,75,0.00,,,0.00,Wunderground v.1.15,2014-01-03 21:48:00,
2014-01-03 16:49:00,3.9,-2.5,-32.77,NW,321,0.0,13.0,74,0.00,,,0.00,Wunderground v.1.15,2014-01-03 21:49:00,
2014-01-03 16:50:00,3.8,-2.6,-32.77,NW,321,0.0,13.0,74,0.00,,,0.00,Wunderground v.1.15,2014-01-03 21:50:00,
2014-01-03 16:56:00,3.6,-2.0,-32.77,NW,321,0.0,13.0,77,0.00,,,0.00,Wunderground v.1.15,2014-01-03 21:56:00,
2014-01-03 16:57:00,3.5,-2.1,-32.77,NW,321,0.0,13.0,77,0.00,,,0.00,Wunderground v.1.15,2014-01-03 21:57:00,
2014-01-03 16:58:00,3.5,-1.8,-32.77,NW,321,0.0,13.0,78,0.00,,,0.00,Wunderground v.1.15,2014-01-03 21:58:00,
2014-01-03 16:59:00,3.4,-1.9,-32.77,NW,321,0.0,13.0,78,0.00,,,0.00,Wunderground v.1.15,2014-01-03 21:59:00,
2014-01-03 17:01:00,3.3,-2.3,-32.77,NW,321,0.0,13.0,77,0.00,,,0.00,Wunderground v.1.15,2014-01-03 22:01:00,
2014-01-03 17:02:00,3.2,-2.7,-32.77,NW,321,0.0,13.0,76,0.00,,,0.00,Wunderground v.1.15,2014-01-03 22:02:00,
2014-01-03 17:05:00,3.1,-2.8,-32.77,NW,321,0.0,13.0,76,0.00,,,0.00,Wunderground v.1.15,2014-01-03 22:05:00,
2014-01-03 17:06:00,3.1,-2.8,-32.77,NW,321,0.0,13.0,76,0.00,,,0.00,Wunderground v.1.15,2014-01-03 22:06:00,
2014-01-03 17:08:00,3.0,-2.6,-32.77,NW,321,0.0,13.0,77,0.00,,,0.00,Wunderground v.1.15,2014-01-03 22:08:00,
2014-01-03 17:10:00,2.9,-2.7,-32.77,NW,321,0.0,13.0,77,0.00,,,0.00,Wunderground v.1.15,2014-01-03 22:10:00,
2014-01-03 17:12:00,2.9,-2.4,-32.77,NW,321,0.0,13.0,78,0.00,,,0.00,Wunderground v.1.15,2014-01-03 22:12:00,
2014-01-03 17:14:00,2.8,-2.5,-32.77,NW,321,0.0,13.0,78,0.00,,,0.00,Wunderground v.1.15,2014-01-03 22:14:00,
2014-01-03 17:16:00,2.7,-2.6,-32.77,NW,321,0.0,13.0,78,0.00,,,0.00,Wunderground v.1.15,2014-01-03 22:16:00,
2014-01-03 17:19:00,2.6,-2.4,-32.77,NW,321,0.0,13.0,79,0.00,,,0.00,Wunderground v.1.15,2014-01-03 22:19:00,
2014-01-03 17:20:00,2.6,-2.4,-32.77,NW,321,0.0,13.0,79,0.00,,,0.00,Wunderground v.1.15,2014-01-03 22:20:00,
2014-01-03 17:21:00,2.6,-2.4,-32.77,NW,321,0.0,13.0,79,0.00,,,0.00,Wunderground v.1.15,2014-01-03 22:21:00,
2014-01-03 17:22:00,2.5,-2.5,-32.77,NW,321,0.0,13.0,79,0.00,,,0.00,Wunderground v.1.15,2014-01-03 22:22:00,
2014-01-03 17:26:00,2.3,-2.7,-32.77,NW,321,0.0,13.0,79,0.00,,,0.00,Wunderground v.1.15,2014-01-03 22:26:00,
2014-01-03 17:28:00,2.2,-2.8,-32.77,NW,311,0.0,13.0,79,0.00,,,0.00,Wunderground v.1.15,2014-01-03 22:28:00,
2014-01-03 17:29:00,2.2,-3.1,-32.77,NW,310,0.0,13.0,78,0.00,,,0.00,Wunderground v.1.15,2014-01-03 22:29:00,
2014-01-03 17:32:00,2.0,-3.0,-32.77,NW,310,0.0,13.0,79,0.00,,,0.00,Wunderground v.1.15,2014-01-03 22:32:00,
2014-01-03 17:34:00,1.9,-3.1,-32.77,NW,310,0.0,13.0,79,0.00,,,0.00,Wunderground v.1.15,2014-01-03 22:34:00,
2014-01-03 17:35:00,1.9,-3.1,-32.77,NW,310,0.0,13.0,79,0.00,,,0.00,Wunderground v.1.15,2014-01-03 22:35:00,
2014-01-03 17:37:00,1.8,-3.2,-32.77,NW,310,0.0,13.0,79,0.00,,,0.00,Wunderground v.1.15,2014-01-03 22:37:00,
2014-01-03 17:39:00,1.7,-3.3,-32.77,NW,311,0.0,13.0,79,0.00,,,0.00,Wunderground v.1.15,2014-01-03 22:39:00,
2014-01-03 17:40:00,1.7,-3.3,-32.77,NW,311,0.0,13.0,79,0.00,,,0.00,Wunderground v.1.15,2014-01-03 22:40:00,
2014-01-03 17:42:00,1.6,-3.4,-32.77,NW,310,0.0,13.0,79,0.00,,,0.00,Wunderground v.1.15,2014-01-03 22:42:00,
2014-01-03 17:45:00,1.4,-3.6,-32.77,NW,310,0.0,13.0,79,0.00,,,0.00,Wunderground v.1.15,2014-01-03 22:45:00,
2014-01-03 17:47:00,1.3,-3.7,-32.77,NW,310,0.0,13.0,79,0.00,,,0.00,Wunderground v.1.15,2014-01-03 22:47:00,
2014-01-03 17:48:00,1.3,-3.7,-32.77,NW,310,0.0,13.0,79,0.00,,,0.00,Wunderground v.1.15,2014-01-03 22:48:00,
2014-01-03 17:49:00,1.3,-3.7,-32.77,NW,310,0.0,13.0,79,0.00,,,0.00,Wunderground v.1.15,2014-01-03 22:49:00,
2014-01-03 17:52:00,1.1,-3.6,-32.77,NW,310,0.0,13.0,80,0.00,,,0.00,Wunderground v.1.15,2014-01-03 22:52:00,
2014-01-03 17:53:00,1.2,-3.5,-32.77,NW,310,0.0,13.0,80,0.00,,,0.00,Wunderground v.1.15,2014-01-03 22:53:00,
2014-01-03 17:54:00,1.1,-3.6,-32.77,NW,310,0.0,13.0,80,0.00,,,0.00,Wunderground v.1.15,2014-01-03 22:54:00,
2014-01-03 17:56:00,1.1,-3.9,-32.77,NW,310,0.0,13.0,79,0.00,,,0.00,Wunderground v.1.15,2014-01-03 22:56:00,
2014-01-03 17:58:00,1.1,-3.9,-32.77,NW,310,0.0,13.0,79,0.00,,,0.00,Wunderground v.1.15,2014-01-03 22:58:00,
2014-01-03 17:59:00,1.0,-4.0,-32.77,NW,310,0.0,13.0,79,0.00,,,0.00,Wunderground v.1.15,2014-01-03 22:59:00,
2014-01-03 18:03:00,1.0,-3.7,-32.77,NW,310,0.0,13.0,80,0.00,,,0.00,Wunderground v.1.15,2014-01-03 23:03:00,
2014-01-03 18:04:00,1.0,-3.7,-32.77,NW,310,0.0,13.0,80,0.00,,,0.00,Wunderground v.1.15,2014-01-03 23:04:00,
2014-01-03 18:05:00,1.1,-3.6,-32.77,NW,310,0.0,13.0,80,0.00,,,0.00,Wunderground v.1.15,2014-01-03 23:05:00,
2014-01-03 18:06:00,1.1,-3.6,-32.77,NW,310,0.0,13.0,80,0.00,,,0.00,Wunderground v.1.15,2014-01-03 23:06:00,
2014-01-03 18:11:00,1.0,-3.7,-32.77,NW,310,0.0,13.0,80,0.00,,,0.00,Wunderground v.1.15,2014-01-03 23:11:00,
2014-01-03 18:12:00,0.9,-4.1,-32.77,NW,310,0.0,13.0,79,0.00,,,0.00,Wunderground v.1.15,2014-01-03 23:12:00,
2014-01-03 18:15:00,0.9,-4.1,-32.77,NW,310,0.0,13.0,79,0.00,,,0.00,Wunderground v.1.15,2014-01-03 23:15:00,
2014-01-03 18:16:00,0.9,-4.1,-32.77,NW,310,0.0,13.0,79,0.00,,,0.00,Wunderground v.1.15,2014-01-03 23:16:00,
2014-01-03 18:17:00,0.8,-4.2,-32.77,NW,310,0.0,13.0,79,0.00,,,0.00,Wunderground v.1.15,2014-01-03 23:17:00,
2014-01-03 18:19:00,0.8,-4.2,-32.77,NW,310,0.0,13.0,79,0.00,,,0.00,Wunderground v.1.15,2014-01-03 23:19:00,
2014-01-03 18:20:00,0.7,-4.3,-32.77,NW,310,0.0,13.0,79,0.00,,,0.00,Wunderground v.1.15,2014-01-03 23:20:00,
2014-01-03 18:21:00,0.7,-4.0,-32.77,NW,310,0.0,13.0,80,0.00,,,0.00,Wunderground v.1.15,2014-01-03 23:21:00,
2014-01-03 18:23:00,0.7,-4.0,-32.77,NW,310,0.0,13.0,80,0.00,,,0.00,Wunderground v.1.15,2014-01-03 23:23:00,
2014-01-03 18:24:00,0.6,-4.4,-32.77,NW,310,0.0,13.0,79,0.00,,,0.00,Wunderground v.1.15,2014-01-03 23:24:00,
2014-01-03 18:25:00,0.6,-4.4,-32.77,NW,310,0.0,13.0,79,0.00,,,0.00,Wunderground v.1.15,2014-01-03 23:25:00,
2014-01-03 18:26:00,0.5,-4.5,-32.77,NW,310,0.0,13.0,79,0.00,,,0.00,Wunderground v.1.15,2014-01-03 23:26:00,
2014-01-03 18:29:00,0.5,-4.2,-32.77,NW,310,0.0,13.0,80,0.00,,,0.00,Wunderground v.1.15,2014-01-03 23:29:00,
2014-01-03 18:30:00,0.5,-4.2,-32.77,NW,310,0.0,13.0,80,0.00,,,0.00,Wunderground v.1.15,2014-01-03 23:30:00,
2014-01-03 18:35:00,0.6,-3.9,-32.77,NW,310,0.0,13.0,81,0.00,,,0.00,Wunderground v.1.15,2014-01-03 23:35:00,
2014-01-03 18:37:00,0.6,-4.1,-32.77,NW,310,0.0,13.0,80,0.00,,,0.00,Wunderground v.1.15,2014-01-03 23:37:00,
2014-01-03 18:38:00,0.6,-4.1,-32.77,NW,310,0.0,13.0,80,0.00,,,0.00,Wunderground v.1.15,2014-01-03 23:38:00,
2014-01-03 18:39:00,0.7,-4.0,-32.77,NW,310,0.0,13.0,80,0.00,,,0.00,Wunderground v.1.15,2014-01-03 23:39:00,
2014-01-03 18:40:00,0.7,-4.0,-32.77,NW,310,0.0,13.0,80,0.00,,,0.00,Wunderground v.1.15,2014-01-03 23:40:00,
2014-01-03 18:44:00,0.8,-3.9,-32.77,NW,310,0.0,13.0,80,0.00,,,0.00,Wunderground v.1.15,2014-01-03 23:44:00,
2014-01-03 18:45:00,0.8,-3.9,-32.77,NW,310,0.0,13.0,80,0.00,,,0.00,Wunderground v.1.15,2014-01-03 23:45:00,
2014-01-03 18:46:00,0.8,-3.9,-32.77,NW,310,0.0,13.0,80,0.00,,,0.00,Wunderground v.1.15,2014-01-03 23:46:00,
2014-01-03 18:49:00,0.9,-3.6,-32.77,NW,310,0.0,13.0,81,0.00,,,0.00,Wunderground v.1.15,2014-01-03 23:49:00,
2014-01-03 18:51:00,0.9,-3.6,-32.77,NW,310,0.0,13.0,81,0.00,,,0.00,Wunderground v.1.15,2014-01-03 23:51:00,
2014-01-03 18:53:00,0.7,-4.3,-32.77,NW,310,0.0,13.0,79,0.00,,,0.00,Wunderground v.1.15,2014-01-03 23:53:00,
2014-01-03 18:54:00,0.5,-4.7,-32.77,NW,310,0.0,13.0,78,0.00,,,0.00,Wunderground v.1.15,2014-01-03 23:54:00,
2014-01-03 18:55:00,0.4,-4.8,-32.77,NW,310,0.0,13.0,78,0.00,,,0.00,Wunderground v.1.15,2014-01-03 23:55:00,
2014-01-03 18:56:00,0.3,-4.7,-32.77,NW,310,0.0,13.0,79,0.00,,,0.00,Wunderground v.1.15,2014-01-03 23:56:00,
2014-01-03 18:57:00,0.2,-4.8,-32.77,NW,310,0.0,13.0,79,0.00,,,0.00,Wunderground v.1.15,2014-01-03 23:57:00,
2014-01-03 18:59:00,0.0,-5.0,-32.77,NW,310,0.0,13.0,79,0.00,,,0.00,Wunderground v.1.15,2014-01-03 23:59:00,
2014-01-03 19:02:00,-0.1,-4.8,-32.77,NW,310,0.0,13.0,80,0.00,,,0.00,Wunderground v.1.15,2014-01-04 00:02:00,
2014-01-03 19:04:00,0.0,-4.7,-32.77,NW,310,1.0,13.0,80,0.00,,,0.00,Wunderground v.1.15,2014-01-04 00:04:00,
2014-01-03 19:05:00,0.1,-4.6,-32.77,NW,310,1.0,13.0,80,0.00,,,0.00,Wunderground v.1.15,2014-01-04 00:05:00,
2014-01-03 19:07:00,0.1,-4.3,-32.77,NW,310,1.0,13.0,81,0.00,,,0.00,Wunderground v.1.15,2014-01-04 00:07:00,
2014-01-03 19:10:00,0.0,-5.0,-32.77,NW,310,0.0,13.0,79,0.00,,,0.00,Wunderground v.1.15,2014-01-04 00:10:00,
2014-01-03 19:11:00,-0.2,-5.2,-32.77,NW,310,0.0,13.0,79,0.00,,,0.00,Wunderground v.1.15,2014-01-04 00:11:00,
2014-01-03 19:15:00,-0.8,-5.7,-32.77,NW,310,1.0,13.0,79,0.00,,,0.00,Wunderground v.1.15,2014-01-04 00:15:00,
2014-01-03 19:16:00,-1.0,-5.9,-32.77,NW,310,1.0,13.0,79,0.00,,,0.00,Wunderground v.1.15,2014-01-04 00:16:00,
2014-01-03 19:17:00,-1.1,-6.0,-32.77,NW,310,1.0,13.0,79,0.00,,,0.00,Wunderground v.1.15,2014-01-04 00:17:00,
2014-01-03 19:18:00,-1.2,-6.1,-32.77,NW,310,1.0,13.0,79,0.00,,,0.00,Wunderground v.1.15,2014-01-04 00:18:00,
2014-01-03 19:19:00,-1.4,-6.3,-32.77,NW,310,1.0,13.0,79,0.00,,,0.00,Wunderground v.1.15,2014-01-04 00:19:00,
2014-01-03 19:21:00,-1.3,-5.7,-32.77,NW,310,1.0,13.0,81,0.00,,,0.00,Wunderground v.1.15,2014-01-04 00:21:00,
2014-01-03 19:23:00,-1.0,-5.2,-32.77,NW,310,1.0,13.0,82,0.00,,,0.00,Wunderground v.1.15,2014-01-04 00:23:00,
2014-01-03 19:25:00,-0.7,-4.9,-32.77,NW,310,0.0,13.0,82,0.00,,,0.00,Wunderground v.1.15,2014-01-04 00:25:00,
2014-01-03 19:26:00,-0.5,-4.7,-32.77,NW,310,0.0,13.0,82,0.00,,,0.00,Wunderground v.1.15,2014-01-04 00:26:00,
2014-01-03 19:29:00,-0.5,-4.9,-32.77,NW,310,0.0,13.0,81,0.00,,,0.00,Wunderground v.1.15,2014-01-04 00:29:00,
2014-01-03 19:31:00,-0.5,-4.9,-32.77,NW,310,0.0,13.0,81,0.00,,,0.00,Wunderground v.1.15,2014-01-04 00:31:00,
2014-01-03 19:32:00,-0.4,-4.8,-32.77,NW,310,0.0,13.0,81,0.00,,,0.00,Wunderground v.1.15,2014-01-04 00:32:00,
2014-01-03 19:33:00,-0.4,-4.8,-32.77,NW,310,0.0,13.0,81,0.00,,,0.00,Wunderground v.1.15,2014-01-04 00:33:00,
2014-01-03 19:35:00,-0.4,-4.8,-32.77,NW,310,0.0,13.0,81,0.00,,,0.00,Wunderground v.1.15,2014-01-04 00:35:00,
2014-01-03 19:38:00,-0.4,-4.8,-32.77,NW,310,0.0,13.0,81,0.00,,,0.00,Wunderground v.1.15,2014-01-04 00:38:00,
2014-01-03 19:39:00,-0.3,-4.7,-32.77,NW,310,0.0,13.0,81,0.00,,,0.00,Wunderground v.1.15,2014-01-04 00:39:00,
2014-01-03 19:40:00,-0.3,-4.5,-32.77,NW,310,0.0,13.0,82,0.00,,,0.00,Wunderground v.1.15,2014-01-04 00:40:00,
2014-01-03 19:42:00,-0.3,-4.5,-32.77,NW,310,0.0,13.0,82,0.00,,,0.00,Wunderground v.1.15,2014-01-04 00:42:00,
2014-01-03 19:45:00,-0.8,-5.5,-32.77,NW,310,0.0,13.0,80,0.00,,,0.00,Wunderground v.1.15,2014-01-04 00:45:00,
2014-01-03 19:46:00,-0.9,-5.6,-32.77,NW,310,0.0,13.0,80,0.00,,,0.00,Wunderground v.1.15,2014-01-04 00:46:00,
2014-01-03 19:47:00,-1.1,-5.8,-32.77,NW,310,0.0,13.0,80,0.00,,,0.00,Wunderground v.1.15,2014-01-04 00:47:00,
2014-01-03 19:48:00,-1.3,-6.0,-32.77,NW,310,0.0,13.0,80,0.00,,,0.00,Wunderground v.1.15,2014-01-04 00:48:00,
2014-01-03 19:49:00,-1.3,-6.0,-32.77,NW,310,0.0,13.0,80,0.00,,,0.00,Wunderground v.1.15,2014-01-04 00:49:00,
2014-01-03 19:52:00,-1.3,-5.7,-32.77,SE,145,0.0,13.0,81,0.00,,,0.00,Wunderground v.1.15,2014-01-04 00:52:00,
2014-01-03 19:53:00,-1.3,-5.7,-32.77,SE,145,0.0,13.0,81,0.00,,,0.00,Wunderground v.1.15,2014-01-04 00:53:00,
2014-01-03 19:54:00,-1.4,-5.8,-32.77,SE,136,0.0,13.0,81,0.00,,,0.00,Wunderground v.1.15,2014-01-04 00:54:00,
2014-01-03 19:55:00,-1.4,-6.1,-32.77,ESE,119,0.0,13.0,80,0.00,,,0.00,Wunderground v.1.15,2014-01-04 00:55:00,
2014-01-03 19:57:00,-1.5,-6.2,-32.77,ESE,121,1.0,13.0,80,0.00,,,0.00,Wunderground v.1.15,2014-01-04 00:57:00,
2014-01-03 19:58:00,-1.5,-6.2,-32.77,ESE,121,1.0,13.0,80,0.00,,,0.00,Wunderground v.1.15,2014-01-04 00:58:00,
2014-01-03 19:59:00,-1.5,-6.2,-32.77,ESE,121,1.0,13.0,80,0.00,,,0.00,Wunderground v.1.15,2014-01-04 00:59:00,
2014-01-03 20:00:00,-1.5,-6.2,-32.77,ESE,121,1.0,1.0,80,0.00,,,0.00,Wunderground v.1.15,2014-01-04 01:00:00,
2014-01-03 20:02:00,-1.5,-6.2,-32.77,ESE,121,1.0,13.0,80,0.00,,,0.00,Wunderground v.1.15,2014-01-04 01:02:00,
2014-01-03 20:04:00,-1.4,-5.8,-32.77,ESE,121,1.0,13.0,81,0.00,,,0.00,Wunderground v.1.15,2014-01-04 01:04:00,
2014-01-03 20:05:00,-1.3,-5.7,-32.77,ESE,121,0.0,13.0,81,0.00,,,0.00,Wunderground v.1.15,2014-01-04 01:05:00,
2014-01-03 20:06:00,-1.2,-5.6,-32.77,ESE,121,0.0,13.0,81,0.00,,,0.00,Wunderground v.1.15,2014-01-04 01:06:00,
2014-01-03 20:07:00,-1.2,-5.6,-32.77,ESE,121,0.0,13.0,81,0.00,,,0.00,Wunderground v.1.15,2014-01-04 01:07:00,
2014-01-03 20:09:00,-1.1,-5.5,-32.77,ESE,121,0.0,13.0,81,0.00,,,0.00,Wunderground v.1.15,2014-01-04 01:09:00,
2014-01-03 20:10:00,-1.1,-5.5,-32.77,ESE,121,0.0,13.0,81,0.00,,,0.00,Wunderground v.1.15,2014-01-04 01:10:00,
2014-01-03 20:11:00,-1.0,-5.4,-32.77,ESE,121,0.0,13.0,81,0.00,,,0.00,Wunderground v.1.15,2014-01-04 01:11:00,
2014-01-03 20:13:00,-0.8,-5.2,-32.77,ESE,121,0.0,13.0,81,0.00,,,0.00,Wunderground v.1.15,2014-01-04 01:13:00,
2014-01-03 20:14:00,-0.7,-2.5,-32.77,ESE,121,0.0,13.0,92,0.00,,,0.00,Wunderground v.1.15,2014-01-04 01:14:00,
2014-01-03 20:15:00,-0.6,-5.0,-32.77,ESE,121,0.0,13.0,81,0.00,,,0.00,Wunderground v.1.15,2014-01-04 01:15:00,
2014-01-03 20:18:00,-0.7,-5.4,-32.77,ESE,121,0.0,13.0,80,0.00,,,0.00,Wunderground v.1.15,2014-01-04 01:18:00,
2014-01-03 20:19:00,-0.7,-5.4,-32.77,ESE,121,0.0,13.0,80,0.00,,,0.00,Wunderground v.1.15,2014-01-04 01:19:00,
2014-01-03 20:20:00,-0.7,-5.4,-32.77,ESE,121,0.0,13.0,80,0.00,,,0.00,Wunderground v.1.15,2014-01-04 01:20:00,
2014-01-03 20:24:00,-0.7,-5.4,-32.77,ESE,121,0.0,13.0,80,0.00,,,0.00,Wunderground v.1.15,2014-01-04 01:24:00,
2014-01-03 20:25:00,-0.6,-5.0,-32.77,ESE,121,0.0,13.0,81,0.00,,,0.00,Wunderground v.1.15,2014-01-04 01:25:00,
2014-01-03 20:30:00,-0.3,-4.7,-32.77,ESE,121,0.0,13.0,81,0.00,,,0.00,Wunderground v.1.15,2014-01-04 01:30:00,
2014-01-03 20:32:00,-0.2,-4.6,-32.77,ESE,121,0.0,13.0,81,0.00,,,0.00,Wunderground v.1.15,2014-01-04 01:32:00,
2014-01-03 20:33:00,-0.1,-4.8,-32.77,ESE,121,0.0,13.0,80,0.00,,,0.00,Wunderground v.1.15,2014-01-04 01:33:00,
2014-01-03 20:35:00,-0.2,-4.9,-32.77,ESE,121,0.0,13.0,80,0.00,,,0.00,Wunderground v.1.15,2014-01-04 01:35:00,
2014-01-03 20:37:00,-0.2,-4.9,-32.77,ESE,121,0.0,13.0,80,0.00,,,0.00,Wunderground v.1.15,2014-01-04 01:37:00,
2014-01-03 20:39:00,-0.3,-4.7,-32.77,ESE,121,0.0,13.0,81,0.00,,,0.00,Wunderground v.1.15,2014-01-04 01:39:00,
2014-01-03 20:42:00,-0.4,-4.8,-32.77,ESE,121,0.0,13.0,81,0.00,,,0.00,Wunderground v.1.15,2014-01-04 01:42:00,
2014-01-03 20:43:00,-0.5,-5.5,-32.77,ESE,121,0.0,13.0,79,0.00,,,0.00,Wunderground v.1.15,2014-01-04 01:43:00,
2014-01-03 20:46:00,-0.8,-5.5,-32.77,ESE,121,0.0,13.0,80,0.00,,,0.00,Wunderground v.1.15,2014-01-04 01:46:00,
2014-01-03 20:47:00,-0.8,-5.5,-32.77,ESE,121,0.0,13.0,80,0.00,,,0.00,Wunderground v.1.15,2014-01-04 01:47:00,
2014-01-03 20:50:00,-0.8,-5.2,-32.77,ESE,121,0.0,13.0,81,0.00,,,0.00,Wunderground v.1.15,2014-01-04 01:50:00,
2014-01-03 20:52:00,-0.7,-4.9,-32.77,ESE,121,0.0,13.0,82,0.00,,,0.00,Wunderground v.1.15,2014-01-04 01:52:00,
2014-01-03 20:53:00,-0.7,-4.9,-32.77,ESE,121,0.0,13.0,82,0.00,,,0.00,Wunderground v.1.15,2014-01-04 01:53:00,
2014-01-03 20:55:00,-0.5,-4.7,-32.77,ESE,121,0.0,13.0,82,0.00,,,0.00,Wunderground v.1.15,2014-01-04 01:55:00,
2014-01-03 20:56:00,-0.5,-4.7,-32.77,ESE,121,0.0,13.0,82,0.00,,,0.00,Wunderground v.1.15,2014-01-04 01:56:00,
2014-01-03 21:00:00,-0.5,-5.2,-32.77,ESE,121,0.0,13.0,80,0.00,,,0.00,Wunderground v.1.15,2014-01-04 02:00:00,
2014-01-03 21:01:00,-0.6,-5.3,-32.77,ESE,121,0.0,13.0,80,0.00,,,0.00,Wunderground v.1.15,2014-01-04 02:01:00,
2014-01-03 21:02:00,-0.6,-5.3,-32.77,ESE,121,0.0,13.0,80,0.00,,,0.00,Wunderground v.1.15,2014-01-04 02:02:00,
2014-01-03 21:07:00,-0.6,-5.0,-32.77,ESE,121,0.0,13.0,81,0.00,,,0.00,Wunderground v.1.15,2014-01-04 02:07:00,
2014-01-03 21:08:00,-0.6,-5.0,-32.77,ESE,121,0.0,13.0,81,0.00,,,0.00,Wunderground v.1.15,2014-01-04 02:08:00,
2014-01-03 21:09:00,-0.6,-5.0,-32.77,ESE,121,0.0,13.0,81,0.00,,,0.00,Wunderground v.1.15,2014-01-04 02:09:00,
2014-01-03 21:10:00,-0.5,-4.9,-32.77,ESE,121,0.0,13.0,81,0.00,,,0.00,Wunderground v.1.15,2014-01-04 02:10:00,
2014-01-03 21:11:00,-0.5,-4.9,-32.77,ESE,121,0.0,13.0,81,0.00,,,0.00,Wunderground v.1.15,2014-01-04 02:11:00,
2014-01-03 21:13:00,-0.4,-4.8,-32.77,ESE,121,0.0,13.0,81,0.00,,,0.00,Wunderground v.1.15,2014-01-04 02:13:00,
2014-01-03 21:17:00,-0.3,-4.7,-32.77,ESE,121,0.0,13.0,81,0.00,,,0.00,Wunderground v.1.15,2014-01-04 02:17:00,
2014-01-03 21:19:00,-0.3,-4.7,-32.77,ESE,121,0.0,13.0,81,0.00,,,0.00,Wunderground v.1.15,2014-01-04 02:19:00,
2014-01-03 21:20:00,-0.3,-4.7,-32.77,ESE,121,0.0,13.0,81,0.00,,,0.00,Wunderground v.1.15,2014-01-04 02:20:00,
2014-01-03 21:22:00,-0.4,-4.8,-32.77,ESE,121,0.0,13.0,81,0.00,,,0.00,Wunderground v.1.15,2014-01-04 02:22:00,
2014-01-03 21:23:00,-0.4,-4.8,-32.77,ESE,121,0.0,13.0,81,0.00,,,0.00,Wunderground v.1.15,2014-01-04 02:23:00,
2014-01-03 21:24:00,-0.4,-4.8,-32.77,ESE,121,0.0,13.0,81,0.00,,,0.00,Wunderground v.1.15,2014-01-04 02:24:00,
2014-01-03 21:25:00,-0.4,-5.1,-32.77,ESE,121,0.0,13.0,80,0.00,,,0.00,Wunderground v.1.15,2014-01-04 02:25:00,
2014-01-03 21:27:00,-0.4,-5.1,-32.77,ESE,121,0.0,13.0,80,0.00,,,0.00,Wunderground v.1.15,2014-01-04 02:27:00,
2014-01-03 21:29:00,-0.5,-5.2,-32.77,ESE,121,0.0,13.0,80,0.00,,,0.00,Wunderground v.1.15,2014-01-04 02:29:00,
2014-01-03 21:31:00,-0.4,-4.8,-32.77,ESE,121,0.0,13.0,81,0.00,,,0.00,Wunderground v.1.15,2014-01-04 02:31:00,
2014-01-03 21:32:00,-0.3,-4.7,-32.77,ESE,121,0.0,13.0,81,0.00,,,0.00,Wunderground v.1.15,2014-01-04 02:32:00,
2014-01-03 21:35:00,0.0,-4.7,-32.77,ESE,121,0.0,13.0,80,0.00,,,0.00,Wunderground v.1.15,2014-01-04 02:35:00,
2014-01-03 21:36:00,0.1,-4.6,-32.77,ESE,121,0.0,13.0,80,0.00,,,0.00,Wunderground v.1.15,2014-01-04 02:36:00,
2014-01-03 21:37:00,0.1,-4.6,-32.77,ESE,121,0.0,13.0,80,0.00,,,0.00,Wunderground v.1.15,2014-01-04 02:37:00,
2014-01-03 21:41:00,0.2,-4.5,-32.77,ESE,121,0.0,13.0,80,0.00,,,0.00,Wunderground v.1.15,2014-01-04 02:41:00,
2014-01-03 21:42:00,0.1,-4.6,-32.77,ESE,121,0.0,13.0,80,0.00,,,0.00,Wunderground v.1.15,2014-01-04 02:42:00,
2014-01-03 21:43:00,0.1,-4.3,-32.77,ESE,121,0.0,13.0,81,0.00,,,0.00,Wunderground v.1.15,2014-01-04 02:43:00,
2014-01-03 21:44:00,0.2,-4.3,-32.77,ESE,121,0.0,13.0,81,0.00,,,0.00,Wunderground v.1.15,2014-01-04 02:44:00,
2014-01-03 21:49:00,0.3,-4.2,-32.77,ESE,121,0.0,13.0,81,0.00,,,0.00,Wunderground v.1.15,2014-01-04 02:49:00,
2014-01-03 21:50:00,0.3,-4.2,-32.77,ESE,121,0.0,13.0,81,0.00,,,0.00,Wunderground v.1.15,2014-01-04 02:50:00,
2014-01-03 21:51:00,0.2,-4.3,-32.77,ESE,121,0.0,13.0,81,0.00,,,0.00,Wunderground v.1.15,2014-01-04 02:51:00,
2014-01-03 21:52:00,0.2,-4.5,-32.77,ESE,121,0.0,13.0,80,0.00,,,0.00,Wunderground v.1.15,2014-01-04 02:52:00,
2014-01-03 21:53:00,0.2,-4.5,-32.77,South,178,0.0,13.0,80,0.00,,,0.00,Wunderground v.1.15,2014-01-04 02:53:00,
2014-01-03 21:56:00,0.2,-4.5,-32.77,SW,218,0.0,13.0,80,0.00,,,0.00,Wunderground v.1.15,2014-01-04 02:56:00,
2014-01-03 21:58:00,0.4,-4.3,-32.77,SW,219,0.0,13.0,80,0.00,,,0.00,Wunderground v.1.15,2014-01-04 02:58:00,
2014-01-03 21:59:00,0.4,-4.3,-32.77,SW,218,0.0,13.0,80,0.00,,,0.00,Wunderground v.1.15,2014-01-04 02:59:00,
2014-01-03 22:02:00,0.4,-4.3,-32.77,South,184,0.0,13.0,80,0.00,,,0.00,Wunderground v.1.15,2014-01-04 03:02:00,
2014-01-03 22:03:00,0.4,-4.1,-32.77,South,183,0.0,13.0,81,0.00,,,0.00,Wunderground v.1.15,2014-01-04 03:03:00,
2014-01-03 22:04:00,0.4,-4.1,-32.77,South,184,0.0,13.0,81,0.00,,,0.00,Wunderground v.1.15,2014-01-04 03:04:00,
2014-01-03 22:05:00,0.3,-4.4,-32.77,South,183,0.0,13.0,80,0.00,,,0.00,Wunderground v.1.15,2014-01-04 03:05:00,
2014-01-03 22:09:00,0.1,-4.6,-32.77,South,186,0.0,13.0,80,0.00,,,0.00,Wunderground v.1.15,2014-01-04 03:09:00,
2014-01-03 22:10:00,0.0,-4.7,-32.77,South,186,0.0,13.0,80,0.00,,,0.00,Wunderground v.1.15,2014-01-04 03:10:00,
2014-01-03 22:12:00,-0.2,-4.9,-32.77,South,186,0.0,13.0,80,0.00,,,0.00,Wunderground v.1.15,2014-01-04 03:12:00,
2014-01-03 22:14:00,-0.3,-5.0,-32.77,South,181,0.0,13.0,80,0.00,,,0.00,Wunderground v.1.15,2014-01-04 03:14:00,
2014-01-03 22:15:00,-0.4,-5.1,-32.77,SSE,149,0.0,13.0,80,0.00,,,0.00,Wunderground v.1.15,2014-01-04 03:15:00,
2014-01-03 22:18:00,-0.4,-4.8,-32.77,SSE,149,0.0,13.0,81,0.00,,,0.00,Wunderground v.1.15,2014-01-04 03:18:00,
2014-01-03 22:19:00,-0.4,-4.8,-32.77,SSE,150,0.0,13.0,81,0.00,,,0.00,Wunderground v.1.15,2014-01-04 03:19:00,
2014-01-03 22:21:00,-0.3,-4.7,-32.77,South,180,0.0,13.0,81,0.00,,,0.00,Wunderground v.1.15,2014-01-04 03:21:00,
2014-01-03 22:24:00,-0.1,-4.5,-32.77,South,180,0.0,13.0,81,0.00,,,0.00,Wunderground v.1.15,2014-01-04 03:24:00,
2014-01-03 22:25:00,-0.1,-4.5,-32.77,South,180,0.0,13.0,81,0.00,,,0.00,Wunderground v.1.15,2014-01-04 03:25:00,
2014-01-03 22:26:00,0.0,-4.4,-32.77,South,179,0.0,13.0,81,0.00,,,0.00,Wunderground v.1.15,2014-01-04 03:26:00,
2014-01-03 22:28:00,0.1,-4.3,-32.77,South,178,0.0,13.0,81,0.00,,,0.00,Wunderground v.1.15,2014-01-04 03:28:00,
2014-01-03 22:31:00,0.6,-3.9,-32.77,SSE,165,0.0,13.0,81,0.00,,,0.00,Wunderground v.1.15,2014-01-04 03:31:00,
2014-01-03 22:32:00,0.9,-3.6,-32.77,SE,136,0.0,13.0,81,0.00,,,0.00,Wunderground v.1.15,2014-01-04 03:32:00,
2014-01-03 22:34:00,1.4,-3.3,-32.77,SE,134,1.0,13.0,80,0.00,,,0.00,Wunderground v.1.15,2014-01-04 03:34:00,
2014-01-03 22:36:00,1.8,-3.2,-32.77,SE,146,1.0,13.0,79,0.00,,,0.00,Wunderground v.1.15,2014-01-04 03:36:00,
2014-01-03 22:37:00,2.0,-3.0,-32.77,SE,146,1.0,13.0,79,0.00,,,0.00,Wunderground v.1.15,2014-01-04 03:37:00,
2014-01-03 22:39:00,2.2,-3.1,-32.77,SSE,167,1.0,13.0,78,0.00,,,0.00,Wunderground v.1.15,2014-01-04 03:39:00,
2014-01-03 22:40:00,2.2,-3.1,-32.77,SSE,167,1.0,1.0,78,0.00,,,0.00,Wunderground v.1.15,2014-01-04 03:40:00,
2014-01-03 22:42:00,2.2,-3.1,-32.77,SSE,167,1.0,13.0,78,0.00,,,0.00,Wunderground v.1.15,2014-01-04 03:42:00,
2014-01-03 22:45:00,2.0,-3.3,-32.77,South,171,1.0,13.0,78,0.00,,,0.00,Wunderground v.1.15,2014-01-04 03:45:00,
2014-01-03 22:46:00,2.1,-3.5,-32.77,SSE,164,1.0,13.0,77,0.00,,,0.00,Wunderground v.1.15,2014-01-04 03:46:00,
2014-01-03 22:48:00,2.1,-3.5,-32.77,SE,144,1.0,13.0,77,0.00,,,0.00,Wunderground v.1.15,2014-01-04 03:48:00,
2014-01-03 22:51:00,2.3,-3.3,-32.77,SSE,152,1.0,13.0,77,0.00,,,0.00,Wunderground v.1.15,2014-01-04 03:51:00,
2014-01-03 22:52:00,2.4,-3.4,-32.77,South,169,1.0,13.0,76,0.00,,,0.00,Wunderground v.1.15,2014-01-04 03:52:00,
2014-01-03 22:54:00,2.6,-3.2,-32.77,SE,138,1.0,13.0,76,0.00,,,0.00,Wunderground v.1.15,2014-01-04 03:54:00,
2014-01-03 22:56:00,2.7,-3.1,-32.77,SSE,147,1.0,13.0,76,0.00,,,0.00,Wunderground v.1.15,2014-01-04 03:56:00,
2014-01-03 22:58:00,2.8,-3.1,-32.77,SSE,153,2.0,13.0,76,0.00,,,0.00,Wunderground v.1.15,2014-01-04 03:58:00,
2014-01-03 22:59:00,2.8,-3.1,-32.77,SE,135,2.0,13.0,76,0.00,,,0.00,Wunderground v.1.15,2014-01-04 03:59:00,
2014-01-03 23:01:00,2.9,-3.2,-32.77,SE,145,2.0,13.0,75,0.00,,,0.00,Wunderground v.1.15,2014-01-04 04:01:00,
2014-01-03 23:04:00,3.0,-3.1,-32.77,South,175,1.0,13.0,75,0.00,,,0.00,Wunderground v.1.15,2014-01-04 04:04:00,
2014-01-03 23:06:00,3.1,-3.0,-32.77,SSE,162,1.0,13.0,75,0.00,,,0.00,Wunderground v.1.15,2014-01-04 04:06:00,
2014-01-03 23:08:00,3.1,-3.0,-32.77,SSE,162,1.0,13.0,75,0.00,,,0.00,Wunderground v.1.15,2014-01-04 04:08:00,
2014-01-03 23:10:00,3.1,-3.0,-32.77,SSE,162,1.0,1.0,75,0.00,,,0.00,Wunderground v.1.15,2014-01-04 04:10:00,
2014-01-03 23:11:00,3.1,-3.0,-32.77,SSE,156,1.0,3.0,75,0.00,,,0.00,Wunderground v.1.15,2014-01-04 04:11:00,
2014-01-03 23:14:00,3.1,-3.0,-32.77,SSE,161,1.0,13.0,75,0.00,,,0.00,Wunderground v.1.15,2014-01-04 04:14:00,
2014-01-03 23:16:00,3.2,-2.9,-32.77,SSE,155,1.0,13.0,75,0.00,,,0.00,Wunderground v.1.15,2014-01-04 04:16:00,
2014-01-03 23:17:00,3.2,-2.9,-32.77,SSE,149,1.0,13.0,75,0.00,,,0.00,Wunderground v.1.15,2014-01-04 04:17:00,
2014-01-03 23:18:00,3.3,-2.8,-32.77,SSE,149,1.0,13.0,75,0.00,,,0.00,Wunderground v.1.15,2014-01-04 04:18:00,
2014-01-03 23:21:00,3.3,-2.8,-32.77,South,173,1.0,13.0,75,0.00,,,0.00,Wunderground v.1.15,2014-01-04 04:21:00,
2014-01-03 23:23:00,3.3,-3.1,-32.77,SSE,164,1.0,13.0,74,0.00,,,0.00,Wunderground v.1.15,2014-01-04 04:23:00,
2014-01-03 23:25:00,3.3,-2.8,-32.77,South,169,1.0,13.0,75,0.00,,,0.00,Wunderground v.1.15,2014-01-04 04:25:00,
2014-01-03 23:30:00,3.5,-2.9,-32.77,SSE,157,1.0,1.0,74,0.00,,,0.00,Wunderground v.1.15,2014-01-04 04:30:00,
2014-01-03 23:31:00,3.6,-2.8,-32.77,SSE,159,1.0,13.0,74,0.00,,,0.00,Wunderground v.1.15,2014-01-04 04:31:00,
2014-01-03 23:32:00,3.6,-2.6,-32.77,SSE,159,1.0,13.0,75,0.00,,,0.00,Wunderground v.1.15,2014-01-04 04:32:00,
2014-01-03 23:34:00,3.5,-2.7,-32.77,SSE,153,1.0,13.0,75,0.00,,,0.00,Wunderground v.1.15,2014-01-04 04:34:00,
2014-01-03 23:36:00,3.6,-2.6,-32.77,SSE,157,1.0,13.0,75,0.00,,,0.00,Wunderground v.1.15,2014-01-04 04:36:00,
2014-01-03 23:37:00,3.6,-2.8,-32.77,SSE,157,1.0,13.0,74,0.00,,,0.00,Wunderground v.1.15,2014-01-04 04:37:00,
2014-01-03 23:39:00,3.6,-2.8,-32.77,SSE,155,0.0,13.0,74,0.00,,,0.00,Wunderground v.1.15,2014-01-04 04:39:00,
2014-01-03 23:42:00,3.8,-2.6,-32.77,SE,142,1.0,13.0,74,0.00,,,0.00,Wunderground v.1.15,2014-01-04 04:42:00,
2014-01-03 23:44:00,3.9,-2.8,-32.77,SE,142,1.0,13.0,73,0.00,,,0.00,Wunderground v.1.15,2014-01-04 04:44:00,
2014-01-03 23:45:00,4.0,-2.7,-32.77,SE,138,1.0,13.0,73,0.00,,,0.00,Wunderground v.1.15,2014-01-04 04:45:00,
2014-01-03 23:47:00,4.1,-2.6,-32.77,SE,138,1.0,13.0,73,0.00,,,0.00,Wunderground v.1.15,2014-01-04 04:47:00,
2014-01-03 23:51:00,4.1,-2.6,-32.77,SE,141,1.0,13.0,73,0.00,,,0.00,Wunderground v.1.15,2014-01-04 04:51:00,
2014-01-03 23:53:00,4.3,-2.4,-32.77,SE,144,1.0,13.0,73,0.00,,,0.00,Wunderground v.1.15,2014-01-04 04:53:00,
2014-01-03 23:55:00,4.3,-2.4,-32.77,SE,137,1.0,13.0,73,0.00,,,0.00,Wunderground v.1.15,2014-01-04 04:55:00,
2014-01-03 23:56:00,4.3,-2.4,-32.77,SE,128,1.0,13.0,73,0.00,,,0.00,Wunderground v.1.15,2014-01-04 04:56:00,
2014-01-03 23:58:00,4.3,-2.4,-32.77,SE,133,1.0,13.0,73,0.00,,,0.00,Wunderground v.1.15,2014-01-04 04:58:00,